GFSNE_sfc_dewp_000.txt.gz
Dewpoint
60 60 60 59 58 56 56 54 52 50 49 50 50 51 50 50 51 51 46 51 52 53 53 52 51 47 46 45 43 43 42 41 39 39 39 39 39 39
58 59 59 59 58 57 56 55 54 53 51 51 51 52 52 52 52 47 43 47 50 51 51 50 47 46 44 42 42 40 39 37 37 37 38 38 38 38
57 58 58 58 58 57 56 55 55 54 53 52 54 54 48 46 47 44 45 45 47 50 48 46 45 43 42 41 39 37 37 36 36 36 36 37 37 36
54 56 56 57 58 58 56 55 55 55 54 53 54 54 47 44 45 43 43 42 44 46 46 45 43 41 40 39 36 36 36 35 34 34 35 35 36 35
52 53 54 55 55 56 57 56 55 55 55 54 53 54 48 44 43 43 42 41 40 44 44 43 41 39 39 36 35 35 35 34 34 34 34 34 34 35
51 52 53 54 54 55 55 56 56 56 55 54 54 53 44 42 43 42 39 40 38 38 39 37 37 37 36 35 34 33 33 34 34 33 33 33 34 33
48 49 51 51 50 53 55 55 56 56 55 54 53 50 44 40 41 42 42 39 39 35 32 31 32 31 30 32 33 33 33 32 33 33 33 34 33 33
47 47 49 50 51 52 53 52 54 55 54 53 53 51 49 47 44 43 42 37 34 34 31 29 28 28 28 27 30 30 30 30 32 33 33 33 32 32
46 47 48 50 50 52 52 53 53 53 54 55 54 53 51 49 45 42 41 38 33 30 28 24 26 25 27 25 30 30 30 30 31 32 33 32 32 32
44 44 47 48 50 51 52 52 53 54 54 54 54 54 53 51 47 44 41 33 30 30 28 24 25 24 26 27 30 29 30 30 30 32 32 31 31 32
42 42 43 45 46 49 50 50 50 52 46 48 51 51 51 49 46 38 34 32 26 25 27 24 22 22 23 23 23 26 27 29 30 31 31 30 30 31
39 39 42 43 45 46 47 48 48 50 42 40 41 43 45 44 43 40 34 31 29 27 28 24 21 21 20 22 22 22 22 26 26 26 26 27 28 26
30 34 38 42 44 44 44 45 45 49 43 39 36 34 34 34 34 34 35 33 30 28 28 26 23 24 22 22 21 20 20 19 20 21 24 24 25 26
32 32 36 39 41 43 44 45 46 47 38 34 33 32 31 31 32 32 32 31 31 30 29 25 22 21 16 20 19 19 18 20 20 20 19 22 24 25
32 35 39 41 42 42 43 44 46 40 35 33 32 31 31 31 31 30 30 30 30 29 28 25 23 20 19 16 17 18 20 20 21 21 20 19 18 19
34 35 39 42 44 44 43 43 37 36 35 34 33 32 31 30 28 28 27 27 26 26 28 26 24 19 15 17 18 19 20 20 20 20 19 18 19 20
36 36 37 37 39 39 37 34 34 35 32 32 30 29 29 28 27 28 27 27 26 24 24 25 23 22 21 17 21 21 20 20 20 20 17 16 17 18
33 34 35 35 35 36 34 32 32 31 30 30 29 29 28 27 26 28 27 26 24 23 22 17 16 16 14 18 25 20 20 20 19 16 16 15 15 17
30 33 34 33 33 34 33 32 31 30 30 29 28 28 28 27 27 26 26 24 23 21 16 13 9 7 4 7 17 25 22 21 20 18 17 15 15 17
29 30 33 33 32 32 32 31 29 29 28 28 28 27 27 27 26 25 24 22 21 17 15 10 8 2 11 7 14 16 19 16 14 15 16 18 19 24
26 28 32 33 32 32 32 30 29 28 28 28 28 27 27 27 26 24 23 23 22 18 12 9 9 21 3 3 7 13 17 21 21 21 23 24 22 22
25 28 32 33 33 32 30 29 28 29 28 28 27 27 27 27 24 23 22 21 21 16 10 6 7 5 3 8 11 13 16 19 22 26 29 30 25 21
26 29 32 33 32 32 30 29 29 28 28 27 27 27 27 24 23 23 21 22 19 14 13 11 9 5 9 10 18 18 17 20 24 24 24 27 30 31

GFSNE_sfc_dewp_003.txt.gz
Dewpoint
59 59 59 59 59 59 58 57 54 51 50 49 49 51 50 50 50 50 50 51 55 56 57 57 57 57 56 54 52 50 48 47 46 44 43 41 41 41
55 57 57 57 58 59 59 58 57 55 52 52 51 52 52 51 51 51 50 52 54 56 56 55 55 55 54 52 49 47 46 45 43 42 41 41 40 40
49 52 53 55 56 56 57 57 57 56 54 53 53 53 51 52 50 51 50 49 51 54 55 55 54 54 52 49 48 45 44 43 41 40 40 40 40 39
47 50 51 52 53 55 55 55 56 56 55 53 53 54 52 49 50 48 47 48 48 51 53 53 53 52 49 48 46 44 42 41 39 39 38 38 38 38
48 49 50 51 51 52 53 54 54 54 55 55 54 55 55 46 44 44 44 45 45 48 52 52 51 49 48 46 44 43 40 39 38 37 37 36 36 36
47 48 48 49 50 50 51 52 53 53 53 53 53 54 54 47 47 47 42 43 43 43 47 49 49 48 46 44 43 39 39 38 38 37 36 35 34 35
46 46 47 47 48 49 50 51 52 52 52 51 51 52 53 44 44 45 46 44 42 42 42 44 43 42 42 42 40 40 37 36 36 36 35 35 35 35
38 40 43 45 47 49 51 51 52 51 50 50 50 50 50 52 50 47 45 40 38 40 39 38 39 37 37 36 37 36 36 36 35 35 35 34 34 34
39 38 42 41 42 44 46 48 49 50 51 51 51 51 52 52 52 49 47 44 43 37 38 35 35 34 34 32 34 33 33 34 33 34 34 34 34 34
36 37 40 35 38 43 44 45 45 46 48 50 51 51 52 53 53 51 48 41 33 34 35 31 31 31 31 31 34 32 33 33 33 33 34 34 33 32
33 37 30 31 38 41 41 42 42 42 44 46 47 48 48 50 52 42 36 35 31 31 31 31 29 30 29 27 27 32 32 32 32 33 33 33 32 32
34 31 34 34 38 39 37 39 39 39 41 42 45 46 44 46 49 47 44 39 32 29 31 29 28 28 24 24 22 23 24 29 30 32 32 31 31 27
32 33 32 35 38 39 41 40 41 43 43 43 44 37 34 34 35 36 38 39 34 32 31 30 28 25 22 22 21 21 21 20 20 22 26 27 27 26
32 32 31 36 36 40 41 43 44 43 42 42 37 33 32 32 32 32 33 33 33 33 33 31 26 25 23 21 18 19 19 19 19 19 20 23 25 26
31 33 36 35 38 38 38 40 40 38 38 36 33 32 32 32 31 30 30 31 31 31 30 27 25 23 22 20 19 19 19 20 21 20 21 20 19 19
31 31 34 33 36 36 35 36 35 35 35 33 32 32 31 30 29 29 27 28 27 26 28 26 24 23 20 18 20 18 19 18 20 20 20 19 19 20
31 31 28 28 32 32 34 33 35 34 32 32 31 30 29 28 27 28 27 27 25 24 24 26 26 24 19 17 15 19 20 20 21 20 19 18 18 18
30 27 26 27 29 31 31 32 33 34 31 31 30 29 28 27 26 27 27 27 25 24 23 24 23 20 14 16 24 20 20 19 20 20 18 16 16 17
27 27 26 28 28 32 32 32 31 33 31 30 29 28 28 27 27 26 26 26 25 22 18 15 14 7 3 8 16 25 20 21 21 20 19 18 17 17
25 25 27 28 28 31 32 31 31 30 29 28 28 28 27 27 26 26 26 25 22 18 13 10 5 2 8 7 9 15 20 17 15 14 15 18 19 24
25 25 27 27 29 31 32 32 31 29 28 28 27 27 27 27 26 26 25 23 21 13 9 9 12 20 -2 3 7 13 16 21 21 18 20 22 21 22
25 25 26 27 29 29 31 31 30 29 28 27 27 27 27 27 26 25 22 19 17 12 9 5 3 2 0 6 8 10 15 19 22 25 27 28 25 22
23 24 26 27 25 28 31 30 29 28 27 27 27 27 27 25 25 22 21 20 16 14 10 9 6 2 6 9 13 12 14 18 20 20 23 27 28 30

GFSNE_sfc_dewp_006.txt.gz
Dewpoint
50 52 54 55 56 57 57 57 55 52 51 53 53 52 51 51 52 51 51 51 53 54 55 56 56 57 57 58 59 59 59 57 56 53 51 50 48 46
46 47 48 50 52 55 56 56 55 54 51 52 52 55 54 52 52 52 52 52 52 54 55 55 55 56 56 57 57 58 57 55 53 52 50 48 46 43
46 46 48 49 50 52 53 53 53 53 51 50 53 55 56 54 53 52 52 52 52 53 54 55 55 55 56 56 56 56 54 52 51 50 48 46 43 43
39 43 46 47 49 50 50 50 50 51 51 49 50 52 53 55 55 53 52 52 52 52 54 54 55 55 55 55 54 53 51 50 49 47 45 43 42 42
40 43 46 47 45 46 48 48 48 49 50 49 49 51 52 53 52 51 52 52 51 52 53 53 55 55 55 54 53 51 50 48 47 45 42 41 41 41
44 46 44 40 40 44 45 46 47 48 48 48 49 48 49 50 51 52 49 46 48 47 49 50 53 54 54 53 51 49 48 46 45 43 40 39 39 38
41 35 37 39 43 45 40 38 43 44 44 46 46 48 49 48 47 47 47 50 46 47 45 46 50 51 51 51 48 47 46 44 44 42 40 39 37 37
29 29 35 37 41 38 38 41 43 43 44 44 44 44 45 48 49 50 49 47 46 44 45 45 46 46 46 47 46 46 44 43 43 40 39 37 37 36
25 26 28 34 35 29 34 39 37 41 43 43 42 42 43 44 48 48 48 49 47 42 43 41 39 41 40 42 45 44 43 42 40 39 37 37 36 36
25 25 30 34 32 33 34 34 34 37 38 40 41 41 42 44 46 46 47 46 37 38 40 37 35 37 36 38 43 43 41 40 39 37 37 36 35 35
25 26 32 33 35 36 33 34 35 36 40 42 43 44 44 45 46 45 43 39 36 34 34 33 31 30 32 33 37 40 39 38 37 36 35 35 35 34
26 28 35 33 34 34 32 34 35 37 39 39 40 42 44 44 44 42 43 41 38 31 32 32 30 30 28 30 32 33 36 37 35 35 35 35 34 31
28 30 29 33 33 34 35 36 37 37 38 36 38 40 42 36 35 35 35 39 36 33 33 32 30 27 28 25 27 29 24 23 26 29 33 34 33 32
29 28 28 32 35 37 35 37 37 37 35 34 35 35 35 34 33 33 33 33 34 34 35 32 29 27 25 23 22 20 20 20 20 19 19 23 29 30
27 30 30 33 32 31 32 34 35 33 33 32 33 34 34 33 30 30 31 30 29 29 29 29 28 26 26 24 20 19 18 19 20 19 19 19 19 19
30 25 30 28 28 28 29 30 31 32 33 33 32 33 32 30 29 29 28 28 26 25 27 27 26 25 22 22 21 19 19 16 20 20 20 19 19 19
24 26 25 24 25 26 26 28 30 31 32 32 32 31 30 28 27 28 28 27 25 24 24 25 25 24 23 20 17 18 19 19 19 20 20 18 19 19
22 23 23 23 24 25 26 28 29 31 32 31 30 30 28 27 26 27 28 26 24 24 23 24 23 16 14 17 21 19 20 19 19 20 19 17 16 17
21 24 23 22 24 25 25 28 28 30 32 30 29 28 28 26 27 26 27 26 25 23 20 19 12 5 4 4 14 24 19 20 20 19 19 18 17 18
22 23 22 22 23 25 26 26 27 30 30 29 28 27 27 27 26 26 26 25 22 20 16 10 3 -1 1 4 9 14 24 20 17 13 14 18 19 22
22 21 21 21 24 26 23 25 26 29 30 28 27 27 26 26 26 26 26 24 22 17 12 10 5 17 -5 2 8 13 16 20 19 17 19 19 20 21
21 21 21 22 26 23 23 25 26 29 28 27 26 26 27 27 26 25 24 22 20 17 11 2 1 1 1 5 5 8 14 18 21 24 26 25 22 16
22 22 21 23 25 23 23 25 26 28 28 27 26 26 26 25 24 23 22 19 17 14 12 10 5 2 5 9 8 8 10 14 17 17 23 27 28 28

GFSNE_sfc_dewp_009.txt.gz
Dewpoint
46 47 48 47 49 50 51 52 50 47 45 47 49 51 55 55 54 53 53 54 55 54 56 56 56 56 56 57 58 58 59 59 59 60 60 58 56 55
42 41 41 43 47 49 50 51 50 49 46 46 47 50 52 54 54 53 52 52 54 55 55 55 55 55 55 56 56 57 57 58 58 60 60 57 56 54
36 38 40 43 46 47 46 47 46 47 46 45 47 48 50 51 52 54 54 53 53 54 55 55 55 55 55 55 56 56 57 57 57 59 59 57 55 53
35 38 40 44 44 43 42 42 45 45 44 43 44 45 47 49 50 52 53 54 53 53 54 54 54 54 55 55 55 55 55 56 56 57 57 56 54 52
32 36 43 39 40 36 38 43 42 38 40 41 44 45 45 47 49 50 51 53 54 52 54 54 54 54 55 55 55 55 55 55 55 54 54 54 53 50
34 41 34 33 35 35 39 34 31 36 38 38 39 41 42 44 46 48 48 50 49 51 51 51 52 53 54 55 54 53 53 54 54 53 52 51 49 46
21 25 25 30 34 37 37 34 33 35 36 34 36 38 38 40 41 44 44 46 48 50 49 48 48 49 50 52 52 53 53 52 52 52 50 48 46 45
16 18 25 29 28 37 37 37 36 34 33 34 34 34 36 38 40 42 42 42 41 46 47 47 48 47 48 50 52 52 51 51 50 49 47 45 44 43
22 24 25 25 31 34 35 36 36 35 35 34 34 36 36 38 39 39 39 40 42 45 45 44 44 45 47 46 50 51 50 49 48 47 45 44 42 41
23 25 25 27 31 32 31 29 31 31 32 34 37 38 39 39 41 41 41 41 42 44 43 41 42 42 38 40 48 48 47 46 45 44 44 42 41 40
25 26 29 28 31 32 29 29 29 30 33 38 39 39 40 39 40 41 39 39 39 41 39 40 34 32 33 35 42 46 45 44 43 42 42 41 40 39
31 30 31 29 31 32 28 29 32 35 36 35 35 35 35 36 39 40 38 35 36 36 35 35 31 30 29 30 33 41 41 42 41 41 41 40 39 34
30 26 26 31 32 30 31 30 33 33 34 33 33 32 33 34 34 36 36 34 32 34 38 36 31 30 29 26 29 31 33 36 37 39 40 38 36 34
25 27 28 28 28 29 27 28 29 31 31 31 30 31 32 32 33 34 32 32 32 32 34 34 30 28 26 25 24 26 27 29 31 28 28 35 36 37
29 29 27 27 27 25 27 29 30 28 31 30 30 30 32 33 33 30 31 30 28 28 28 30 30 29 27 25 22 23 24 24 23 22 21 23 23 22
32 22 23 25 26 25 25 26 27 27 28 30 30 31 32 31 30 29 28 28 26 25 26 28 27 26 24 24 25 24 23 22 21 20 20 20 20 19
23 20 19 21 21 21 22 24 25 25 27 27 30 30 28 28 28 28 28 27 25 24 23 25 26 25 24 23 22 22 20 19 19 19 19 18 18 19
20 19 20 21 21 21 22 22 24 25 25 27 29 29 28 27 27 27 27 26 24 23 23 24 23 21 20 21 23 19 19 18 19 20 18 16 16 17
20 21 20 20 21 21 21 23 23 23 26 27 29 29 28 27 27 26 27 26 23 22 21 20 18 16 13 11 14 22 18 19 19 19 19 18 17 18
22 20 20 21 21 20 21 23 22 23 25 26 28 27 27 26 26 26 26 23 22 21 18 16 14 8 7 8 11 13 22 20 20 17 16 19 19 21
21 20 20 22 21 21 23 23 23 23 25 26 28 27 26 26 26 26 26 25 22 20 17 14 13 16 -1 3 12 13 16 23 21 16 17 17 19 21
20 20 21 21 21 22 23 23 22 23 24 26 27 26 26 26 26 25 24 22 20 19 15 9 9 8 9 6 5 7 13 18 21 24 22 23 20 18
20 21 22 21 21 22 22 22 22 22 24 27 26 26 26 24 24 23 21 19 18 15 13 11 8 3 4 6 7 5 9 12 16 17 24 28 27 29

GFSNE_sfc_dewp_012.txt.gz
Dewpoint
42 42 39 40 42 44 47 48 45 40 39 40 42 45 49 50 51 52 54 54 56 56 56 56 56 57 58 58 58 59 59 59 59 59 61 60 60 61
29 33 35 39 40 44 47 45 43 42 39 37 38 41 44 45 48 49 50 51 54 55 56 55 55 55 56 57 57 57 57 57 59 59 60 60 60 60
26 28 32 36 41 41 43 38 37 40 40 39 36 35 37 42 46 48 48 49 51 53 55 55 55 55 55 55 56 57 57 58 58 59 59 59 59 60
26 30 33 37 33 36 37 32 36 41 34 32 32 34 38 38 41 43 44 47 48 50 53 54 54 55 55 55 55 55 56 56 57 57 58 58 58 60
28 26 20 27 26 27 27 29 36 35 34 34 33 36 35 35 40 41 40 41 45 48 51 53 54 54 54 54 54 54 54 55 55 56 56 57 57 59
23 20 18 19 22 27 25 28 35 34 34 34 34 33 33 34 37 36 36 39 40 41 46 47 50 52 53 53 53 52 52 54 54 55 55 54 55 57
21 20 23 27 30 29 29 30 33 33 32 34 33 31 31 31 32 35 36 38 39 39 41 43 46 49 49 50 50 50 51 53 53 53 54 55 55 56
22 23 23 27 28 33 33 33 31 29 28 30 31 28 28 30 34 36 37 36 34 39 41 41 42 45 45 47 49 50 50 51 52 53 53 54 53 52
24 24 24 25 30 29 31 32 31 32 31 29 28 29 29 32 36 35 34 35 36 37 39 37 41 41 45 44 48 49 50 50 51 52 52 52 50 49
25 26 26 30 29 27 27 30 32 27 27 30 32 34 34 37 36 34 36 35 36 39 40 38 41 41 43 43 45 46 47 49 50 51 51 48 47 47
25 27 31 27 29 31 29 28 25 30 31 32 34 34 35 34 34 33 33 33 33 34 37 39 40 40 34 35 37 42 45 48 49 48 46 45 45 44
28 30 28 26 30 30 23 25 27 24 25 29 31 32 31 31 33 33 34 32 31 31 32 36 37 33 32 31 33 39 45 47 46 45 44 43 43 39
27 22 23 31 31 27 27 24 24 25 29 28 28 29 30 30 32 34 34 33 31 29 32 34 33 32 31 28 29 31 38 42 41 42 42 42 41 39
22 22 27 32 26 25 26 27 27 27 25 26 26 28 28 29 30 32 32 33 32 30 28 28 29 32 28 26 27 28 29 32 36 37 38 41 41 40
22 31 28 25 24 23 25 26 25 22 24 25 25 27 27 29 32 30 31 30 29 28 27 26 29 29 28 26 24 24 26 27 31 32 34 37 37 36
31 29 23 22 23 23 21 21 21 22 23 26 25 25 26 28 29 29 29 27 25 26 27 27 26 27 25 25 26 25 26 25 26 28 28 26 26 30
24 19 18 18 18 18 19 19 20 21 25 24 23 23 24 28 27 27 28 27 25 24 23 25 26 26 26 25 23 24 23 23 25 24 25 22 21 20
16 16 20 19 18 18 19 19 20 21 22 22 23 24 24 27 26 27 27 26 24 23 22 23 22 22 22 24 27 22 21 21 22 21 19 18 18 19
17 22 19 18 18 19 20 20 19 21 23 23 23 24 25 26 26 26 26 25 23 21 20 20 18 17 17 15 19 24 19 19 19 18 18 17 15 17
20 20 18 18 19 20 20 19 20 22 22 23 23 24 27 26 25 25 25 23 22 21 19 17 16 15 15 16 17 18 22 18 18 18 18 19 19 22
18 19 19 19 21 20 20 20 21 22 23 22 23 25 26 25 25 26 26 25 22 20 18 16 13 18 10 12 16 14 16 23 18 15 16 16 18 20
18 19 20 20 20 20 20 21 21 21 21 22 23 26 25 25 24 24 23 21 20 19 16 13 12 11 11 12 9 9 14 17 21 21 22 23 19 18
20 20 20 20 20 20 21 21 21 21 22 22 25 25 24 23 23 22 21 20 18 16 15 14 12 10 9 11 9 9 12 16 19 21 24 24 27 33

GFSNE_sfc_dewp_015.txt.gz
Dewpoint
33 30 31 32 37 39 42 43 40 37 31 29 30 34 39 40 39 34 39 46 51 52 53 54 55 55 56 57 58 58 59 60 60 60 61 61 61 61
24 25 30 32 35 39 39 37 38 34 32 30 31 37 35 33 35 36 35 42 45 48 50 50 52 53 54 55 56 57 57 58 59 60 60 61 60 61
24 27 29 29 26 28 33 33 31 30 30 29 35 35 34 34 35 36 36 35 42 47 49 48 49 51 53 53 54 55 56 57 58 59 59 60 60 60
24 29 24 19 22 23 25 26 29 30 32 31 36 33 32 34 36 36 35 39 39 41 42 48 46 46 48 51 53 54 54 55 56 57 58 59 59 60
24 24 22 21 21 24 27 28 30 29 32 33 30 32 34 34 34 34 35 36 37 40 40 41 44 45 46 46 48 52 53 54 54 55 55 56 57 58
23 23 22 22 23 26 26 29 29 31 31 31 31 30 31 31 32 30 32 34 35 35 38 39 41 43 45 46 49 50 51 52 53 53 53 54 54 56
23 23 24 27 30 30 28 29 30 30 30 29 29 29 29 28 29 30 29 32 35 39 37 37 40 42 44 42 44 49 50 50 51 51 52 54 54 54
23 24 24 28 28 32 32 31 30 30 29 32 29 27 27 29 31 32 33 31 33 36 35 36 37 39 41 41 43 45 47 48 49 49 50 52 52 52
23 24 25 25 30 29 31 31 33 31 29 27 27 29 30 28 32 33 33 34 32 34 35 32 35 37 40 40 44 45 46 47 47 48 49 50 51 52
23 24 25 28 28 26 26 34 26 24 26 27 27 27 29 31 31 30 32 32 33 34 34 32 37 35 39 43 45 46 46 46 45 46 48 48 49 50
23 24 29 24 26 29 34 25 23 24 26 28 28 30 30 31 31 31 32 30 29 30 34 33 33 35 38 40 41 41 42 42 44 45 47 48 49 50
25 28 27 24 28 34 24 22 23 24 25 25 26 26 28 28 31 31 33 30 30 28 33 32 32 32 32 36 35 36 36 42 45 44 48 48 46 43
28 23 21 27 36 28 26 21 23 24 25 23 24 25 26 27 30 30 34 32 30 29 31 32 31 30 30 31 33 35 33 41 44 45 46 44 42 41
23 22 24 35 26 24 23 25 26 25 22 22 24 24 26 26 28 29 30 32 33 31 34 31 27 28 29 29 30 31 30 34 40 40 39 41 41 40
23 28 28 23 23 22 23 24 24 22 22 23 23 24 26 26 27 28 30 33 32 32 32 28 27 27 28 29 29 29 29 29 35 36 37 36 35 37
31 20 20 21 23 22 20 20 21 21 22 23 23 25 25 25 25 27 29 29 29 29 31 29 28 27 28 30 31 29 28 28 31 31 31 35 36 37
20 17 15 19 19 17 18 19 20 20 22 22 23 24 24 24 24 26 30 29 27 27 26 27 28 29 29 29 27 27 28 27 30 30 29 27 29 35
17 16 17 20 18 17 18 19 20 21 21 22 23 23 23 24 25 28 29 28 26 24 23 24 24 26 26 26 29 24 25 25 27 29 29 25 25 28
16 18 18 18 18 18 19 20 20 20 23 23 23 24 24 24 27 26 27 26 24 23 21 21 20 19 21 19 23 28 23 24 25 24 26 25 25 25
18 19 19 18 19 19 20 20 21 21 22 23 23 23 24 26 26 27 25 24 23 23 21 19 19 17 19 20 20 22 24 23 23 20 19 20 20 24
19 19 19 19 19 20 20 21 21 21 22 22 22 23 26 25 25 25 25 25 23 21 19 18 17 20 17 18 19 18 23 22 20 20 20 18 17 18
18 19 19 19 20 20 20 21 21 21 21 22 22 24 25 25 24 23 21 21 20 19 18 18 18 19 20 20 17 17 19 22 22 23 25 23 23 20
20 19 19 20 20 20 20 21 21 21 21 22 23 25 25 23 21 19 18 18 19 18 18 20 21 21 18 21 20 20 21 22 23 24 26 30 32 26

GFSNE_sfc_dewp_018.txt.gz
Dewpoint
21 24 23 24 28 29 30 34 33 30 29 30 28 23 24 27 32 35 34 37 41 39 40 43 46 49 51 52 51 53 55 56 57 58 58 58 58 62
19 21 23 24 26 25 25 24 25 26 25 24 25 24 25 25 34 33 30 37 40 39 38 41 44 46 47 48 51 52 53 55 56 56 57 57 58 56
20 21 22 25 22 20 22 21 22 23 26 26 27 27 26 28 29 28 31 30 32 36 37 41 41 44 46 48 46 48 50 52 53 55 56 57 58 58
19 21 21 19 21 21 20 21 24 25 27 29 27 26 26 26 28 28 27 26 28 31 34 36 38 41 44 45 47 46 47 47 50 54 55 55 56 57
20 20 21 21 20 21 22 24 25 25 29 29 27 28 28 28 27 28 28 27 25 33 34 34 36 37 40 43 44 43 45 48 49 50 54 55 55 56
21 22 21 21 21 22 23 24 27 27 27 28 29 29 28 28 28 27 26 28 29 28 32 34 37 39 40 40 43 43 46 45 50 52 52 53 53 54
21 20 21 24 28 27 25 28 29 27 29 29 29 26 24 24 25 27 29 28 29 32 33 35 37 38 38 38 39 40 43 44 46 48 50 51 51 51
20 19 19 23 24 29 31 30 28 28 29 30 26 23 23 25 27 26 28 28 27 31 33 32 33 33 35 35 37 40 43 44 45 46 48 49 49 49
19 19 18 17 25 26 27 28 30 35 32 25 24 25 27 26 27 29 30 30 29 29 31 30 32 34 35 35 39 40 41 44 45 46 46 47 47 48
19 19 19 22 26 24 24 28 32 24 24 21 23 26 29 31 29 28 30 31 32 32 32 32 34 33 35 36 37 40 41 43 45 46 46 46 45 45
19 19 23 24 25 27 28 32 26 23 22 25 28 29 28 28 28 28 30 28 29 29 33 32 33 34 35 35 35 36 39 41 41 42 43 44 44 45
21 23 26 23 26 30 29 21 25 21 23 25 24 23 24 25 28 27 30 28 28 27 32 31 32 31 29 35 37 36 37 37 39 40 43 45 44 45
26 23 21 26 29 26 25 20 22 22 23 22 22 23 24 25 26 28 29 29 27 27 29 31 31 30 31 30 31 35 37 36 35 44 47 47 47 45
23 22 24 29 24 23 22 25 24 24 22 22 23 23 24 25 26 28 28 29 30 30 31 32 29 30 28 27 26 32 36 34 35 39 40 44 44 44
21 26 28 23 22 21 23 23 23 21 22 23 23 24 25 26 27 28 29 30 30 31 33 33 31 29 28 27 26 29 34 32 35 35 35 36 37 39
29 26 21 20 20 21 19 19 20 21 22 23 24 25 25 25 25 26 27 28 29 30 33 31 30 29 27 27 29 30 33 30 32 34 33 33 35 35
24 18 15 15 17 17 18 19 20 20 23 24 24 23 23 24 25 27 28 29 28 28 28 29 30 30 30 29 29 31 30 29 32 32 32 31 33 33
18 15 16 19 18 17 17 18 20 22 23 23 23 23 24 24 24 26 29 29 26 25 24 24 25 26 28 28 31 28 28 29 31 32 33 30 31 33
15 18 19 19 18 19 19 20 21 22 24 23 23 23 23 24 26 27 27 26 25 25 24 23 21 21 24 21 25 30 27 29 29 29 30 27 28 32
19 19 19 19 19 19 20 21 21 22 22 23 23 23 24 24 26 26 26 27 24 22 21 22 20 19 20 21 21 25 29 28 26 26 26 27 29 34
19 18 19 19 19 20 21 21 21 21 22 22 22 23 24 26 25 24 23 22 22 21 19 20 20 21 21 22 23 22 26 30 29 27 28 26 25 26
18 19 19 20 20 21 21 21 21 21 21 22 23 24 26 26 23 20 18 20 21 20 20 23 24 24 24 22 20 21 22 26 28 28 29 27 23 20
19 20 20 20 21 22 22 21 21 21 22 23 24 24 26 24 20 18 21 24 25 25 24 25 25 24 23 23 22 22 23 23 25 27 29 31 27 28

GFSNE_sfc_dewp_021.txt.gz
Dewpoint
22 24 23 24 26 26 29 28 26 22 20 21 21 22 26 25 29 27 27 36 39 38 38 39 41 41 39 41 44 46 45 44 48 51 52 54 55 57
19 21 22 23 23 27 28 25 24 23 21 22 22 25 26 27 29 28 27 35 36 35 35 39 39 37 38 41 41 42 43 45 46 46 49 52 54 56
20 21 22 22 23 22 24 24 24 24 22 23 24 28 27 26 26 27 28 28 28 34 33 34 35 36 37 38 40 39 40 42 44 47 47 49 53 55
19 20 21 18 22 23 23 23 24 24 24 25 26 26 25 26 27 27 25 25 26 30 33 33 34 34 35 37 39 41 43 43 43 41 44 47 49 53
19 20 21 22 21 22 22 23 24 24 27 27 25 25 26 28 27 24 21 23 24 31 31 32 33 34 36 37 40 41 42 43 43 44 45 47 49 50
21 22 22 21 20 21 22 24 26 28 28 27 25 26 27 27 25 22 21 25 26 23 27 29 31 33 34 36 39 41 41 41 39 41 43 46 49 52
21 20 20 25 27 25 21 25 27 29 25 26 28 28 30 24 22 22 23 24 24 26 26 28 29 31 33 33 34 37 38 38 38 40 43 44 46 49
21 20 19 25 23 26 28 29 28 25 24 27 29 29 23 21 21 23 24 25 24 26 27 26 27 28 29 30 33 35 36 37 37 40 42 43 45 47
19 19 18 17 23 24 28 29 28 29 31 27 25 24 21 20 24 26 28 27 23 24 27 26 28 30 31 31 34 34 35 37 38 39 40 42 45 46
19 19 19 21 24 25 23 28 30 29 25 21 22 21 22 26 29 26 24 26 28 27 29 26 31 29 31 31 34 33 35 35 36 37 41 44 45 46
20 20 22 22 26 28 27 30 23 20 23 26 27 27 26 27 26 24 26 25 24 25 27 26 28 31 29 30 30 32 38 37 38 37 39 41 41 43
22 24 27 23 27 30 26 20 21 19 25 23 21 21 23 23 26 25 26 25 24 23 25 25 26 27 25 29 32 32 31 32 35 35 38 39 39 39
26 23 22 26 29 29 25 19 20 25 23 20 19 21 22 23 24 25 26 26 24 23 26 26 27 27 26 27 28 30 31 31 33 35 38 42 43 43
23 22 22 32 26 23 22 23 24 23 19 20 22 22 22 23 24 25 25 26 27 27 27 28 27 27 26 26 25 27 29 30 34 34 37 44 47 46
21 24 32 24 22 20 22 23 22 19 20 22 23 22 23 24 24 25 26 27 27 28 29 30 30 30 28 25 24 25 27 31 33 32 34 35 36 41
28 30 21 20 21 20 19 19 18 19 20 22 23 23 23 23 24 25 26 26 26 26 32 32 29 28 25 26 26 25 28 29 32 32 33 33 34 37
24 19 16 15 16 17 17 17 18 19 23 22 22 22 22 23 23 25 25 27 26 25 25 27 28 29 29 28 26 28 30 30 32 32 33 32 32 36
18 15 16 17 17 16 16 17 19 21 21 22 22 22 22 22 22 25 27 27 25 25 24 23 23 23 27 28 30 28 29 30 32 32 33 31 31 34
16 17 18 17 17 17 18 20 21 21 22 22 22 22 22 23 23 25 24 25 24 24 23 24 22 20 22 20 25 32 28 30 30 29 31 32 31 33
18 18 18 18 18 18 21 21 21 21 21 21 22 21 22 23 23 23 22 22 22 22 22 23 20 20 18 20 22 26 32 29 28 28 29 32 34 38
18 18 18 18 19 21 22 22 21 21 22 21 21 22 23 24 24 24 23 25 26 22 21 22 22 23 22 25 23 24 28 33 32 29 29 28 29 31
18 18 18 19 22 22 22 21 21 20 20 21 22 23 24 25 24 24 23 23 24 25 24 26 25 26 24 23 22 24 26 29 32 34 31 29 27 25
18 19 19 21 22 22 21 21 20 20 21 22 23 24 25 23 25 25 24 25 26 26 26 26 24 24 23 23 24 24 26 27 28 28 28 28 31 33

GFSNE_sfc_dewp_024.txt.gz
Dewpoint
20 21 22 23 25 25 25 25 26 21 20 20 20 21 23 24 28 28 25 31 34 35 36 35 36 36 37 37 38 39 39 39 40 44 45 45 49 49
17 18 19 22 22 23 26 24 24 22 20 21 21 22 22 24 27 25 24 33 33 35 34 33 34 35 34 35 36 37 35 37 39 41 43 43 45 46
16 17 20 20 21 22 23 24 23 23 22 22 22 22 26 24 24 24 27 26 27 32 31 31 31 32 33 34 35 35 37 38 39 40 41 43 43 47
17 19 19 19 21 22 23 21 22 23 22 21 24 26 24 24 24 24 26 25 24 27 30 30 33 33 32 33 34 35 35 37 37 39 42 43 44 43
20 21 21 21 21 22 21 21 21 21 26 27 25 26 25 24 25 27 28 24 21 26 27 30 31 31 32 33 33 34 35 36 37 39 40 41 42 44
22 22 22 21 21 20 20 20 22 25 26 26 27 28 24 25 27 30 22 22 19 19 25 28 30 31 31 32 32 33 34 35 36 36 38 40 39 42
22 22 22 24 28 25 20 22 24 23 26 30 28 26 26 25 24 22 19 19 21 23 24 26 24 25 26 29 30 32 33 34 35 36 38 39 39 41
22 21 20 23 23 27 28 28 26 27 27 29 28 25 19 19 22 21 21 22 22 26 23 22 23 24 26 27 31 34 35 36 35 35 36 38 39 41
21 20 19 18 23 22 27 30 34 33 30 25 20 19 19 24 27 25 25 26 25 24 24 23 25 25 28 28 31 31 33 35 34 34 34 36 37 39
21 21 21 21 23 24 24 29 29 28 23 21 20 20 24 23 23 22 23 23 24 24 25 23 25 27 24 26 32 31 31 31 33 39 40 39 37 39
21 22 23 24 27 28 26 30 26 22 24 25 29 29 26 25 24 21 24 24 21 21 24 23 24 24 24 25 26 30 32 37 33 37 36 39 39 40
22 24 28 25 27 30 26 21 21 18 20 25 19 19 21 22 26 23 24 23 22 20 22 22 22 23 22 25 28 30 27 31 32 32 33 34 36 36
26 24 24 26 31 29 26 18 19 22 23 17 17 19 21 23 23 24 25 25 22 21 23 24 25 24 24 24 26 28 32 30 30 30 33 37 38 37
23 21 21 30 25 24 21 24 24 23 17 18 20 22 21 21 22 23 24 25 26 25 27 27 25 25 24 23 24 26 26 27 30 30 33 36 39 41
21 25 30 25 22 19 22 23 22 18 19 22 22 21 22 23 24 24 25 25 26 27 29 29 28 28 27 23 22 23 24 27 29 31 32 32 36 42
28 28 22 20 21 20 18 18 17 18 22 23 22 22 23 23 22 24 23 23 25 26 29 28 26 25 20 22 25 24 25 26 31 32 32 34 36 38
22 18 14 15 16 15 16 16 18 20 23 22 22 21 21 21 21 23 24 25 23 25 24 25 25 25 24 25 24 25 28 29 32 32 33 33 34 37
17 14 16 16 16 16 17 19 20 22 22 22 21 21 21 21 21 24 24 23 22 23 23 24 22 20 20 26 29 26 28 29 31 32 33 33 33 37
15 17 17 17 17 18 19 21 20 21 22 21 21 21 21 20 22 22 24 23 22 23 23 24 21 19 18 18 25 33 28 29 31 31 32 33 32 33
17 18 17 17 18 20 21 21 21 20 20 21 21 20 21 22 22 23 23 22 23 24 23 23 22 21 18 18 20 28 33 30 31 31 32 33 36 38
18 17 17 18 20 21 21 21 20 20 21 20 20 21 22 22 23 23 23 25 26 24 23 23 24 30 25 25 24 25 30 34 33 30 31 32 31 32
16 17 18 19 21 21 20 20 20 19 19 20 21 21 23 24 22 22 24 23 24 26 25 24 25 26 25 24 24 25 27 29 32 35 35 32 28 29
17 19 19 20 21 20 20 20 19 19 20 21 22 23 25 23 22 23 25 25 25 26 25 24 24 24 25 25 26 26 26 27 26 27 32 36 36 36

GFSNE_sfc_dewp_027.txt.gz
Dewpoint
18 20 20 19 23 25 25 24 23 21 19 20 21 21 24 24 24 24 25 30 32 33 34 34 35 36 35 35 35 36 37 37 38 39 41 40 40 42
17 18 18 20 21 22 24 26 24 22 21 20 20 21 21 21 27 25 23 30 32 32 33 34 34 36 33 34 33 34 36 37 38 38 40 38 40 43
18 18 20 20 22 22 23 23 24 24 21 21 21 21 22 25 24 24 26 24 24 32 34 34 34 33 32 32 32 37 35 35 36 38 40 42 43 43
19 21 20 21 22 22 22 22 22 21 21 20 22 24 25 25 24 26 23 23 27 34 32 32 31 30 31 31 32 32 33 34 34 35 36 37 37 41
21 21 22 22 22 22 22 21 22 21 24 26 27 26 24 28 28 25 27 28 27 27 28 28 28 29 30 31 33 32 31 32 33 34 35 36 37 40
22 23 22 22 22 22 21 21 22 23 23 22 23 28 26 26 29 23 18 20 21 20 24 26 29 30 31 30 29 30 30 32 33 33 34 34 37 39
22 22 22 25 27 25 21 21 22 23 27 30 26 28 26 20 18 19 18 21 23 23 22 23 26 26 24 27 27 29 30 32 33 35 36 36 36 38
21 21 22 24 24 28 28 28 27 25 25 28 28 23 19 19 20 19 22 25 22 24 24 25 23 22 23 24 29 30 32 32 31 32 33 36 36 38
21 21 21 20 25 23 28 29 29 32 32 27 22 21 21 20 23 27 26 24 23 23 22 21 22 21 24 23 28 30 30 30 31 34 35 36 34 34
21 21 21 23 26 25 23 25 30 30 25 22 21 21 25 26 22 20 21 23 24 22 22 20 22 21 21 22 28 29 29 31 34 35 35 37 35 36
21 22 25 24 27 27 25 30 26 24 22 25 29 28 25 25 24 22 24 22 19 20 21 21 22 21 22 22 23 28 30 31 33 36 35 34 35 36
24 26 27 23 26 31 26 22 20 17 22 25 17 18 20 21 26 23 24 20 20 19 20 21 21 22 21 23 25 27 28 31 31 32 33 32 32 31
25 22 21 26 34 26 25 17 18 22 21 16 16 18 20 21 21 22 25 24 21 20 22 24 24 23 23 22 24 26 27 28 29 29 30 32 32 32
22 21 22 31 24 23 21 24 24 23 17 18 19 20 20 21 23 24 25 25 26 25 26 27 24 24 23 21 21 23 25 26 27 28 29 32 34 35
23 26 27 23 22 19 22 23 23 18 21 21 20 20 21 23 24 24 24 25 25 26 29 29 27 25 22 21 21 22 24 26 29 29 30 31 32 33
27 22 20 20 21 20 18 18 18 21 22 22 21 21 22 22 22 23 22 23 24 23 25 28 28 26 21 21 22 22 25 25 29 31 32 32 34 37
21 16 14 15 16 16 16 17 18 20 21 21 21 21 21 21 21 22 22 23 22 22 22 25 26 23 22 21 21 24 26 27 31 32 32 33 36 38
17 14 15 17 16 15 16 18 19 20 20 21 20 20 20 20 20 22 23 23 23 22 23 25 23 20 19 23 28 26 28 29 31 32 32 32 33 37
15 17 17 16 16 17 19 20 19 20 21 20 20 21 20 20 21 21 23 23 22 23 25 25 23 20 17 17 24 34 28 30 32 32 33 32 32 35
17 17 16 16 18 19 20 19 20 19 19 20 21 20 20 20 20 21 21 22 24 24 23 24 23 23 19 19 18 27 33 31 30 32 32 33 35 38
16 16 17 18 19 20 20 19 18 19 20 19 19 20 20 21 21 21 21 24 26 24 22 22 24 31 28 26 25 26 30 35 35 31 33 32 32 33
16 17 18 19 19 19 19 18 18 18 18 19 19 20 21 23 23 22 21 22 23 24 23 23 26 27 26 26 25 25 27 32 35 36 36 35 32 30
18 19 19 19 19 19 18 18 18 18 18 19 19 21 21 24 25 24 23 24 24 24 23 22 24 25 26 27 26 25 26 29 31 31 32 37 36 36

GFSNE_sfc_dewp_030.txt.gz
Dewpoint
17 19 19 21 22 22 23 24 23 20 18 20 21 21 22 24 25 22 22 30 33 33 33 33 33 34 35 36 36 38 38 37 39 37 38 39 39 41
17 18 19 21 21 23 24 24 23 22 20 21 21 20 21 20 24 24 25 30 32 33 33 32 33 34 36 37 37 38 38 37 35 36 38 41 41 41
18 19 21 22 22 22 24 24 23 23 22 21 21 22 22 24 25 25 26 24 27 32 32 31 31 32 33 33 35 34 33 33 35 37 38 40 40 40
19 21 22 20 21 23 23 23 23 23 22 22 25 25 24 23 23 24 28 27 26 29 30 30 30 31 30 30 31 31 31 32 33 34 36 37 37 37
20 21 22 22 21 22 23 23 22 22 24 22 21 22 22 25 27 27 25 19 19 24 27 28 29 29 30 30 31 33 33 35 35 33 33 34 35 37
21 23 23 22 22 22 22 21 23 22 22 23 24 27 26 24 30 21 18 19 19 18 23 27 29 29 29 30 30 30 29 29 31 31 31 32 32 33
20 21 22 24 27 25 22 22 22 24 28 28 24 23 27 20 19 19 19 19 20 23 26 21 22 24 25 27 27 28 28 29 31 32 33 34 35 35
20 21 21 24 24 28 28 28 27 23 23 24 28 22 20 19 20 20 21 24 20 21 20 20 22 21 21 22 27 29 29 30 31 32 33 36 33 33
20 20 20 20 25 25 28 27 28 30 33 25 21 20 19 20 24 26 23 22 21 21 22 20 21 20 21 20 27 28 29 29 29 30 34 34 33 34
21 21 22 24 24 22 21 25 30 25 24 20 19 21 25 24 21 21 23 24 24 22 20 19 20 20 20 21 27 28 29 30 30 30 32 33 33 33
21 22 26 23 25 27 30 25 22 20 20 25 29 26 25 25 24 24 23 21 18 17 20 20 20 20 21 21 21 28 29 30 30 31 33 37 38 38
23 27 26 23 27 31 21 19 18 16 24 25 17 18 20 20 25 22 24 20 19 18 20 20 21 21 20 22 23 25 24 28 29 30 30 31 32 31
24 20 20 28 28 25 24 17 19 23 23 16 17 18 20 20 20 22 25 24 20 19 22 24 23 22 22 21 23 24 25 25 26 27 30 33 32 32
21 23 25 27 24 23 22 24 25 23 17 19 20 20 20 21 22 23 24 25 25 24 25 26 23 24 23 21 19 20 22 24 25 27 29 31 35 36
24 25 25 23 22 20 22 24 22 18 19 20 20 20 21 22 23 23 24 24 24 24 27 28 26 25 25 22 20 19 20 22 26 28 29 29 29 30
25 21 20 20 21 20 18 17 17 18 20 21 20 20 21 21 21 22 22 21 22 22 25 27 28 27 23 21 21 19 22 22 26 28 31 32 32 32
21 16 14 15 15 15 15 16 17 18 20 19 20 19 19 20 20 21 22 23 21 22 23 25 27 26 24 21 19 22 24 25 29 31 32 32 35 34
17 14 15 16 16 15 16 17 18 19 19 19 19 19 19 20 19 21 21 22 22 22 24 25 25 22 22 24 27 24 29 29 31 32 33 32 33 36
15 16 16 16 16 17 18 18 17 18 19 18 18 19 20 19 20 19 20 22 21 24 25 25 24 22 19 17 23 30 30 31 31 32 32 32 32 34
16 16 16 17 17 18 18 18 18 17 17 17 20 18 19 19 19 19 21 21 23 24 24 24 24 25 22 20 20 25 34 32 31 31 32 33 34 35
16 16 17 17 18 18 18 18 18 17 19 19 17 18 19 20 19 20 23 24 25 23 23 23 25 32 29 28 24 27 32 34 34 32 32 32 31 31
16 17 17 18 18 18 18 18 17 17 17 17 18 19 19 20 20 22 24 22 23 23 24 25 27 28 26 26 24 27 30 33 35 35 36 35 32 29
17 17 17 17 18 17 17 17 16 17 17 18 18 19 20 20 21 25 24 25 25 24 23 23 26 26 26 26 26 28 29 30 31 31 32 37 36 36

GFSNE_sfc_dewp_033.txt.gz
Dewpoint
17 18 19 21 23 23 23 23 22 19 18 18 20 21 23 23 24 23 22 29 32 33 34 34 33 34 35 36 37 38 39 39 40 41 41 42 42 41
17 18 19 21 23 24 25 24 24 22 20 21 21 21 22 22 25 24 24 30 32 33 33 32 33 33 33 33 33 34 35 39 40 41 42 42 41 40
17 19 20 22 23 22 23 24 24 23 22 21 22 23 24 22 21 22 24 24 25 33 34 33 31 30 31 32 33 35 36 36 37 39 41 39 39 40
18 19 20 20 22 22 23 23 23 23 22 23 25 23 20 21 22 22 25 27 34 31 30 29 29 29 30 30 32 33 33 34 34 34 35 35 37 39
19 20 20 21 22 22 22 22 23 23 25 24 22 22 23 24 25 28 28 24 19 24 27 28 29 30 30 31 32 32 33 34 34 34 35 37 38 38
21 21 21 22 22 22 22 22 24 23 22 23 24 25 24 27 28 20 17 19 18 18 23 26 29 29 29 29 29 28 29 30 31 31 31 32 32 33
20 20 21 24 26 25 22 21 22 24 25 25 23 26 21 19 16 18 18 19 21 24 26 21 20 20 21 25 26 27 28 29 30 30 31 32 33 34
20 21 21 24 24 28 28 28 26 22 25 28 23 20 18 17 19 19 23 23 18 21 20 21 21 20 21 21 26 28 29 30 30 33 34 34 34 34
21 21 21 20 25 25 27 27 30 32 27 23 20 18 18 19 26 25 23 23 21 20 22 22 21 19 20 19 27 28 29 29 30 30 32 33 33 33
21 21 21 22 26 23 24 31 24 22 20 19 19 21 26 24 20 21 24 24 24 21 20 19 20 19 19 20 27 28 29 30 29 30 31 32 32 32
21 22 25 25 25 28 27 23 19 18 20 25 29 26 25 26 25 25 22 21 18 17 19 19 20 20 21 21 21 27 28 29 28 29 30 31 34 34
25 26 25 23 27 30 21 19 18 17 24 26 17 18 21 21 25 22 24 20 19 17 19 20 20 21 20 22 23 24 23 27 28 28 29 30 30 29
19 21 22 27 29 25 25 18 19 24 22 16 17 18 20 20 20 22 24 23 20 19 21 23 22 21 21 20 22 24 24 24 23 23 28 29 30 29
21 22 23 27 24 24 22 25 26 23 16 17 19 19 19 20 21 22 23 24 25 24 25 25 22 22 21 20 19 22 23 24 25 25 26 30 33 35
22 23 25 24 22 20 22 24 23 17 18 20 19 19 19 21 22 22 23 23 23 24 26 26 25 24 24 22 21 21 23 24 25 25 26 27 27 29
24 21 21 20 21 20 18 17 16 17 19 20 19 19 20 19 19 20 20 20 21 21 24 26 28 27 24 24 24 21 23 22 25 27 28 29 30 30
21 16 14 14 15 15 15 16 16 17 19 18 18 18 18 18 18 20 20 21 19 20 22 25 27 27 26 25 22 24 26 27 31 32 32 32 32 32
17 14 15 15 15 15 15 16 17 18 18 19 18 17 17 18 18 19 20 20 20 21 22 25 25 23 23 24 27 25 29 31 32 33 32 31 32 32
15 16 16 16 16 16 17 17 17 17 18 17 17 17 19 17 18 18 19 20 21 22 25 25 24 23 21 20 26 29 28 31 32 32 33 32 31 35
16 16 16 16 16 17 18 17 17 17 17 16 18 17 17 17 17 18 19 20 24 24 23 24 24 24 24 22 23 27 33 31 31 31 31 33 34 38
15 16 16 16 17 18 18 17 17 17 19 18 16 17 17 18 17 18 20 24 26 23 22 23 26 32 28 28 26 29 32 34 34 32 32 32 30 31
15 16 16 17 18 18 17 16 16 16 16 17 16 17 18 19 19 19 20 22 23 24 23 25 26 27 26 26 25 28 29 32 35 36 36 34 30 28
16 16 16 17 17 17 17 16 16 16 17 17 17 18 19 19 20 21 21 24 24 24 23 23 25 25 25 26 27 27 27 28 31 31 32 36 36 35

GFSNE_sfc_dewp_036.txt.gz
Dewpoint
16 17 19 21 22 23 23 23 21 17 15 16 19 20 22 23 25 23 23 29 32 33 33 33 33 34 35 35 36 38 38 38 39 40 40 41 42 42
17 17 18 21 22 24 24 24 24 22 19 19 20 21 22 22 26 23 21 28 30 32 33 32 33 33 34 35 33 34 34 36 37 39 40 40 42 43
17 18 20 20 22 23 24 23 23 23 21 21 22 22 23 22 21 22 24 23 24 31 34 33 32 32 31 32 32 34 34 35 36 37 39 39 41 42
19 19 20 19 21 22 22 22 23 23 22 22 24 22 21 22 23 24 26 28 31 30 30 30 30 30 30 30 31 33 33 33 34 34 35 37 37 38
20 20 20 21 21 22 22 22 23 23 25 24 21 22 23 24 26 26 22 20 17 24 27 28 29 30 30 32 33 34 33 34 32 33 34 35 36 37
21 21 21 21 21 22 22 22 22 21 21 23 23 24 28 24 21 17 16 18 18 18 24 27 29 29 29 29 29 28 28 29 30 31 31 32 33 34
21 21 21 24 27 26 22 22 22 23 24 27 26 22 20 18 17 17 17 19 23 23 20 20 20 20 21 25 26 27 28 29 30 31 31 32 32 33
21 21 21 24 24 28 28 28 26 25 29 23 21 19 18 17 18 19 24 22 19 21 20 22 22 21 21 21 26 28 29 29 30 30 32 34 34 34
21 21 21 21 25 23 28 29 30 31 26 22 19 18 18 19 26 24 22 22 21 21 22 22 21 19 20 19 26 27 29 29 30 30 31 32 33 33
21 21 21 22 24 25 23 30 26 22 20 19 19 21 27 24 21 21 24 24 23 20 19 19 19 18 19 19 26 28 29 29 30 30 31 31 32 31
21 22 23 24 26 28 29 25 20 19 21 25 29 27 25 26 25 24 22 21 18 17 19 19 19 20 20 20 20 27 28 28 29 30 31 32 33 33
21 21 25 24 27 31 21 19 19 17 23 26 17 18 20 20 25 21 22 19 18 17 19 21 20 21 19 21 22 22 21 27 28 30 31 31 31 28
19 20 22 26 27 26 25 18 19 24 22 16 16 17 19 19 19 20 22 22 19 18 20 23 22 21 20 19 21 23 23 23 24 25 29 31 32 31
20 22 21 26 25 24 22 25 26 23 16 17 18 19 19 19 20 21 21 22 23 23 25 25 22 22 21 19 19 22 24 26 26 26 27 30 33 34
22 23 26 24 22 20 22 24 23 17 17 19 19 18 19 19 20 20 20 21 22 23 25 25 25 25 24 22 22 23 25 26 27 27 27 27 26 27
24 22 21 20 20 20 17 16 16 16 19 19 18 18 19 18 18 19 19 19 20 20 24 25 27 27 25 24 25 24 25 24 26 29 30 31 30 29
21 17 14 14 15 14 14 15 16 16 18 18 18 17 17 17 17 18 19 20 18 19 21 24 27 27 27 26 24 25 26 28 31 32 32 32 33 33
18 14 14 15 15 14 15 15 16 18 17 18 17 17 16 16 17 18 18 18 19 20 22 25 25 25 24 26 29 26 29 30 32 32 32 31 32 30
15 15 15 15 15 16 16 17 16 17 18 18 17 16 18 17 17 16 17 18 19 21 25 24 24 24 21 20 26 30 29 31 32 31 32 33 33 31
16 16 15 15 15 16 16 17 17 16 16 16 18 18 16 16 16 15 16 17 20 23 23 24 24 25 25 23 24 28 33 31 31 31 31 34 36 37
15 15 15 16 16 17 17 17 17 17 19 18 16 17 17 17 16 16 17 22 24 22 22 22 26 31 28 28 25 27 31 32 34 32 32 30 31 32
15 15 15 16 17 17 16 16 16 16 16 16 17 17 17 18 17 18 19 20 20 23 24 24 25 26 21 24 25 26 28 30 31 33 35 35 31 29
16 16 16 16 16 16 16 16 16 16 17 17 17 17 18 18 19 20 21 22 24 24 23 22 23 22 17 21 25 26 26 28 30 30 32 36 36 36

GFSNE_sfc_dewp_039.txt.gz
Dewpoint
18 19 19 20 22 22 22 22 20 17 17 15 16 19 21 22 24 22 22 29 32 33 34 34 34 34 35 37 37 37 37 38 39 41 40 40 41 43
19 19 20 21 21 22 23 23 22 21 20 18 20 21 22 21 25 23 22 29 31 32 33 32 32 32 33 34 35 35 36 36 37 38 39 39 40 40
20 20 21 21 21 21 22 23 22 22 21 21 22 22 21 21 21 23 25 24 26 30 31 31 31 31 32 32 33 34 35 36 36 37 38 39 40 41
20 21 21 20 21 21 21 21 22 22 23 22 22 22 20 21 23 25 23 21 22 25 29 29 30 31 31 31 32 33 33 33 34 35 36 37 37 39
21 21 21 20 19 20 21 22 23 22 24 24 22 23 24 26 24 21 18 18 17 24 27 28 30 31 31 32 32 32 31 32 33 32 32 34 35 36
22 22 21 21 21 22 23 23 24 23 23 24 24 27 25 22 23 20 19 20 20 19 25 27 29 29 30 30 30 29 29 30 31 31 31 32 33 35
23 21 21 24 27 27 24 23 23 24 26 27 27 23 23 20 18 19 19 21 24 22 22 21 22 23 24 27 27 28 28 30 30 31 32 32 32 33
21 21 21 25 25 28 28 28 27 25 29 28 25 22 18 18 20 21 25 23 21 22 21 21 23 22 22 23 27 28 29 30 30 31 32 34 34 33
21 21 20 20 25 23 27 29 29 34 29 25 20 18 19 20 27 27 25 24 22 22 22 21 21 20 21 19 26 28 29 30 30 31 32 32 33 33
22 21 21 22 23 25 24 31 30 24 20 19 21 22 27 28 23 23 24 25 24 21 20 21 20 20 20 21 27 28 29 29 30 30 31 32 32 32
21 22 22 21 25 27 28 28 21 19 21 25 28 28 26 26 25 24 25 22 20 18 20 20 20 22 22 22 22 27 27 28 30 32 32 32 32 33
22 20 24 24 26 29 24 21 21 17 23 27 17 17 20 20 25 21 23 22 21 19 19 21 22 23 21 21 24 24 23 27 29 30 32 33 34 32
20 20 22 26 29 26 25 19 19 24 23 16 16 17 18 19 19 20 22 24 21 21 21 24 24 23 23 23 24 26 26 26 26 28 31 33 34 35
20 22 22 27 25 24 22 24 26 24 16 16 18 20 21 21 23 23 23 24 24 24 25 25 24 24 23 22 22 27 28 29 30 31 31 31 34 36
24 24 26 25 23 20 22 24 23 16 16 18 20 21 21 22 23 23 24 24 24 25 26 26 26 26 26 25 25 26 27 30 31 32 32 32 31 31
24 23 22 20 20 20 17 16 15 16 18 20 20 20 21 21 21 22 21 22 22 22 26 27 30 30 28 28 28 27 28 28 32 34 33 33 33 33
22 18 13 13 14 14 14 15 16 16 19 19 20 19 19 20 20 21 21 22 20 21 22 25 29 30 30 29 27 29 30 31 33 33 32 32 34 32
18 13 14 14 14 14 14 15 16 19 18 20 19 19 19 19 20 21 21 20 20 21 22 26 27 27 27 30 29 31 31 31 32 33 33 32 31 31
14 15 15 15 15 16 17 18 18 18 20 20 20 19 20 20 19 19 19 20 20 21 24 27 27 27 24 24 28 30 30 31 31 32 33 33 32 32
15 15 16 16 16 17 18 19 19 19 19 19 20 21 19 19 19 19 19 19 21 24 24 26 27 28 27 26 26 29 31 32 31 31 31 33 35 36
15 15 15 16 17 18 18 19 18 18 20 20 18 19 20 20 19 19 20 22 24 23 23 25 27 29 29 30 28 28 31 32 33 32 32 31 31 32
15 15 16 17 18 18 18 18 18 18 18 19 19 20 20 21 20 20 21 22 22 24 25 28 28 29 28 27 26 27 29 31 32 33 34 35 31 29
15 16 17 17 17 18 18 18 17 17 18 19 19 20 21 21 22 22 23 24 25 26 26 26 27 27 26 26 26 27 28 29 31 30 33 36 36 36

GFSNE_sfc_dewp_042.txt.gz
Dewpoint
18 20 20 20 21 21 21 21 19 16 15 14 14 16 18 20 23 20 20 28 31 32 34 34 34 34 34 35 36 36 37 37 39 40 40 39 41 42
18 20 20 20 20 21 22 21 20 19 17 16 15 18 19 19 22 20 20 28 30 32 32 32 32 32 33 34 35 35 36 36 37 39 40 40 40 40
20 20 21 21 21 19 20 19 19 19 18 19 19 20 20 21 19 22 23 23 23 27 29 30 31 32 32 33 34 35 36 36 38 39 39 39 40 40
20 21 20 18 19 18 18 19 19 20 21 21 22 22 21 21 22 23 20 16 18 24 28 30 31 32 32 32 33 34 34 35 36 36 37 38 38 38
21 21 21 19 17 19 19 21 21 20 24 25 24 23 24 25 24 22 19 19 17 25 28 29 30 31 32 32 32 33 32 32 33 33 34 35 35 36
22 22 21 19 19 20 20 21 20 22 21 22 24 27 29 25 25 21 18 20 20 19 25 27 29 29 30 31 30 30 31 31 32 32 33 33 33 34
21 20 20 22 26 27 23 22 22 23 26 28 28 29 26 22 17 19 20 22 24 24 24 23 23 24 25 28 28 29 29 30 31 32 33 34 33 33
19 18 18 22 22 27 27 28 27 27 31 32 28 24 18 16 19 21 24 27 21 23 22 22 24 23 24 24 27 29 30 30 31 31 32 33 33 34
19 19 18 18 23 20 24 27 28 30 30 26 21 17 17 19 26 29 27 25 23 23 24 23 22 21 23 21 28 29 30 31 31 32 32 33 33 34
19 20 20 20 21 22 22 29 30 25 20 18 19 20 24 28 27 23 25 25 25 23 22 23 23 22 23 24 28 29 30 31 31 31 32 33 33 33
19 19 21 20 24 27 27 31 20 19 20 23 26 29 29 26 25 24 26 24 22 21 23 22 23 24 25 25 25 27 28 29 31 32 33 33 36 37
20 19 23 22 26 28 26 21 21 16 21 27 23 19 20 20 25 22 25 25 23 22 21 24 25 23 22 24 27 27 26 29 31 32 33 33 34 34
19 17 19 25 27 27 26 19 18 22 26 19 16 17 19 20 21 22 24 26 24 23 23 25 25 24 24 24 25 28 29 29 29 30 33 33 33 35
18 20 21 26 26 25 23 24 25 25 18 16 18 20 22 24 25 26 25 26 26 25 26 26 24 25 24 24 23 28 30 31 32 33 34 34 35 36
24 24 26 25 24 20 21 24 23 17 17 19 21 23 25 26 26 26 27 27 26 27 27 27 28 27 27 25 26 28 29 31 33 34 34 34 34 34
24 24 21 21 19 19 17 16 16 17 19 21 22 23 24 25 24 25 24 23 24 25 27 29 30 30 28 29 29 28 30 29 33 34 34 33 35 35
23 17 13 12 14 13 15 16 16 17 20 21 22 22 21 23 23 24 24 25 22 22 23 27 29 30 31 30 28 30 31 32 33 33 32 32 34 35
18 13 13 15 14 14 15 16 18 21 21 22 22 22 22 22 23 24 24 24 22 22 23 26 28 28 29 30 32 31 32 32 32 33 33 32 32 35
13 15 15 16 16 17 19 20 21 21 23 23 23 22 23 23 22 22 23 24 23 24 24 28 28 28 26 24 28 32 32 32 32 31 32 32 31 34
15 16 16 16 17 18 20 21 22 22 22 22 23 23 23 23 22 22 23 23 24 25 25 27 28 29 27 26 27 29 31 33 32 31 32 33 34 36
15 15 16 17 18 20 21 22 21 22 23 23 22 22 23 23 23 22 23 24 25 25 25 25 28 31 31 31 29 29 32 32 32 32 32 31 30 32
15 16 16 18 20 21 22 22 21 21 21 22 22 23 24 24 23 23 24 25 25 25 27 29 30 31 30 29 27 28 30 31 32 33 34 35 31 28
16 16 18 20 21 21 21 21 21 21 22 22 23 23 24 24 25 25 26 27 26 28 27 27 29 30 29 29 28 29 29 29 30 31 34 36 37 36

GFSNE_sfc_dewp_045.txt.gz
Dewpoint
21 23 23 23 24 24 23 23 22 19 18 18 17 18 19 20 23 22 21 28 31 32 33 33 33 34 34 35 36 37 38 38 39 39 40 40 40 42
20 20 21 22 22 24 24 23 22 21 18 19 18 18 20 20 24 22 21 28 30 31 32 32 31 32 33 34 35 35 36 37 38 40 41 41 41 41
20 21 21 21 22 21 22 21 21 21 19 19 21 22 22 22 22 22 24 23 23 29 30 30 31 32 33 33 34 35 35 36 37 38 39 40 41 40
19 21 21 18 22 21 20 20 21 21 21 21 22 22 23 23 22 24 23 22 20 25 29 30 31 32 32 33 33 34 34 35 35 36 38 39 39 40
20 21 21 21 20 20 20 21 22 21 23 22 21 23 23 24 26 27 22 21 18 25 28 29 30 32 32 32 32 32 33 33 33 34 34 35 36 37
22 22 21 21 20 20 21 23 22 22 23 23 23 25 26 29 26 22 19 20 21 20 25 28 29 30 31 31 31 31 31 32 33 33 33 33 34 35
21 20 20 24 25 25 23 24 24 24 25 27 26 27 27 22 20 19 19 21 22 25 23 23 23 23 25 28 28 29 30 31 32 32 33 34 34 35
20 19 19 23 22 25 27 27 26 24 28 30 28 26 23 20 19 20 23 24 24 24 23 22 23 23 24 24 28 30 30 31 32 32 33 34 34 34
19 19 18 17 23 21 24 26 27 29 29 26 24 21 19 19 24 25 26 25 22 22 23 23 24 22 23 22 29 30 31 32 33 33 33 34 34 35
19 20 20 20 21 22 22 27 28 28 25 20 21 20 22 25 29 30 24 24 24 23 23 22 23 21 23 24 29 30 31 32 32 32 33 33 34 36
19 19 20 21 23 26 25 28 27 21 23 24 25 27 29 28 25 23 24 24 21 21 22 22 22 24 23 23 24 28 29 30 32 32 33 34 34 36
20 20 23 21 26 27 24 23 22 19 21 24 23 23 22 21 25 23 24 25 23 21 22 23 23 24 21 22 25 24 25 29 31 32 33 34 35 33
21 19 20 25 27 28 27 22 21 22 23 23 19 18 19 21 22 24 25 26 24 22 23 24 24 22 22 21 22 24 25 26 28 29 33 34 35 36
19 20 23 26 27 26 24 24 25 25 20 18 19 20 21 23 25 25 24 25 26 25 26 26 23 23 22 21 20 23 25 27 30 31 31 35 38 38
21 25 26 26 24 21 21 23 22 18 18 20 21 23 24 24 25 25 26 26 26 25 25 25 26 26 25 23 23 24 26 28 30 32 33 34 33 34
25 24 23 22 19 18 17 17 17 18 19 22 22 23 23 23 23 24 24 24 23 23 24 25 27 28 26 26 26 26 27 27 31 33 33 33 33 34
23 20 16 13 15 15 15 17 18 18 21 22 23 23 22 22 22 23 23 24 23 21 22 24 26 28 28 29 27 27 28 30 32 32 32 31 32 33
19 15 14 16 16 15 16 17 19 21 22 23 22 22 22 21 21 23 23 22 22 22 23 24 25 26 26 27 29 29 28 29 31 31 31 31 30 32
14 16 17 17 17 18 19 20 21 21 23 23 22 21 21 22 21 21 22 22 22 22 23 25 26 26 24 22 25 29 28 28 30 31 30 31 31 33
17 17 17 17 17 19 20 21 21 21 21 21 21 22 22 22 21 21 21 22 22 23 25 25 26 26 25 25 26 27 30 31 31 31 29 31 33 34
16 17 17 18 19 20 21 22 21 21 22 23 21 21 22 23 21 21 22 25 25 25 24 24 26 30 29 30 26 25 28 31 32 32 32 31 31 31
16 17 18 19 20 22 22 22 21 21 21 21 21 22 23 23 22 23 23 24 24 25 26 28 27 27 28 26 26 27 28 29 31 32 34 35 32 28
18 18 19 20 21 22 22 21 20 20 20 21 22 22 23 22 23 24 25 25 26 28 25 26 25 26 26 27 28 28 28 28 29 29 31 36 37 37

GFSNE_sfc_dewp_048.txt.gz
Dewpoint
20 21 22 24 24 24 24 23 22 19 18 19 18 19 21 22 24 23 22 28 32 33 34 34 34 34 35 35 35 36 37 38 39 40 41 41 42 42
21 19 21 23 22 23 24 24 23 22 18 19 19 19 21 21 24 23 23 29 30 32 33 32 33 33 33 34 35 36 37 38 38 40 40 42 41 41
19 21 22 21 23 22 23 22 22 22 19 19 20 22 22 22 22 24 24 22 25 31 32 32 31 32 33 34 34 35 35 37 38 39 40 41 41 41
19 21 21 20 21 22 21 20 21 21 21 20 22 22 22 22 22 22 24 27 25 27 30 30 31 32 32 33 33 34 34 34 35 36 37 38 38 39
21 21 21 22 21 21 21 21 23 22 23 22 22 23 22 24 25 27 26 22 21 25 28 29 30 32 33 32 33 33 32 33 33 34 34 35 36 37
23 23 21 21 21 20 21 22 23 23 23 23 23 24 25 28 28 24 21 21 19 21 25 28 31 30 31 31 31 31 31 32 33 33 33 34 35 36
21 21 21 24 26 25 21 23 24 24 24 25 26 25 25 24 23 23 19 20 21 23 25 24 23 23 24 28 28 30 30 32 32 33 34 34 34 35
21 20 20 24 23 26 27 27 26 23 26 25 26 27 26 24 21 20 20 21 22 25 23 22 22 22 23 24 29 30 31 32 32 33 34 35 35 36
20 20 19 18 24 22 26 26 26 28 29 26 24 22 20 20 22 22 24 27 25 23 23 22 23 22 23 22 28 30 31 32 33 33 33 34 35 36
20 19 20 20 22 23 22 25 26 27 27 25 22 21 22 23 25 30 27 24 23 23 23 22 22 21 21 23 28 29 31 31 31 32 33 34 34 35
20 20 21 21 25 26 25 25 25 25 24 26 26 27 28 28 26 23 23 22 21 20 22 21 21 22 22 22 22 28 28 29 31 31 33 33 34 35
21 22 26 22 26 27 24 24 22 20 21 23 23 23 22 22 25 22 23 23 22 20 20 21 21 22 19 20 22 22 23 27 29 30 32 33 34 33
22 21 21 26 27 28 27 21 21 22 23 21 19 19 19 20 21 22 24 25 23 21 22 23 23 22 22 20 20 22 22 23 24 26 30 33 34 34
20 21 22 27 27 26 24 24 25 24 18 17 18 19 21 22 23 23 24 24 24 24 25 26 24 23 21 20 18 22 23 24 26 28 29 32 34 35
21 24 27 26 25 22 21 23 22 18 18 19 21 21 22 23 23 23 23 23 23 24 25 24 24 24 24 22 21 22 24 25 28 29 30 32 33 33
25 24 24 23 21 19 18 18 18 18 19 20 20 22 22 22 21 21 22 22 22 21 23 23 24 26 24 24 25 24 25 25 28 30 31 33 33 32
23 20 17 15 16 16 16 17 18 18 20 21 21 21 21 20 20 21 21 22 21 19 20 22 25 26 26 26 24 25 26 27 29 29 30 30 30 31
18 15 15 16 16 16 16 17 18 20 20 21 21 21 20 20 20 21 22 20 20 20 21 22 24 25 24 25 28 27 26 26 28 29 29 29 30 30
15 16 17 17 17 17 17 18 19 19 20 21 20 20 20 20 21 19 20 20 20 20 21 23 25 24 22 20 23 28 28 28 28 29 29 30 30 30
17 17 17 17 17 17 18 19 20 20 20 19 20 21 21 20 19 19 20 20 21 22 23 23 24 26 25 24 25 26 30 29 30 29 29 30 32 34
16 16 17 17 18 19 20 20 20 20 21 22 20 21 21 21 20 20 20 23 24 23 22 23 25 30 28 28 26 24 27 30 31 31 31 30 30 31
17 17 17 18 19 20 20 20 20 20 20 20 20 21 21 22 21 21 21 21 22 24 24 27 28 27 26 26 25 25 27 28 30 32 33 33 31 29
17 18 18 19 20 20 20 20 19 19 20 20 20 21 22 21 22 22 22 23 24 25 27 26 26 26 25 26 28 27 27 27 28 28 29 33 34 36

GFSNE_sfc_dewp_051.txt.gz
Dewpoint
21 21 23 24 24 24 24 24 21 19 18 19 19 19 21 22 25 24 23 29 32 33 34 34 35 35 35 36 36 37 38 39 40 40 41 41 42 42
22 19 20 23 22 23 23 24 24 22 18 19 19 20 21 22 25 24 23 29 30 32 33 33 33 33 34 34 35 36 38 37 39 40 41 42 41 42
19 20 21 21 22 22 23 22 22 21 19 20 21 22 22 22 23 23 24 23 25 32 33 32 32 32 33 33 34 35 36 37 37 39 40 41 41 41
19 20 21 20 21 22 22 21 21 21 21 20 22 22 23 23 23 23 24 25 27 29 31 30 31 31 32 33 34 35 33 34 35 36 37 37 38 39
21 21 21 22 21 22 21 21 22 21 23 23 22 24 24 25 25 26 27 26 24 27 28 28 30 32 33 33 32 32 32 33 33 33 34 35 36 37
23 23 22 21 21 20 20 21 22 23 23 23 24 24 25 25 26 25 23 23 21 20 24 27 30 31 31 31 31 31 31 32 33 33 34 35 36 37
22 21 21 24 26 24 22 23 23 23 24 23 25 24 24 23 24 23 22 21 21 22 23 24 26 23 24 27 27 29 30 32 32 33 34 36 36 37
22 22 20 24 23 26 26 26 25 23 23 23 25 24 23 23 21 21 21 21 21 24 24 23 23 22 23 23 28 30 31 31 32 33 34 35 35 36
20 20 19 18 24 22 25 27 27 28 28 26 25 24 23 21 22 22 25 26 25 24 23 22 22 21 22 22 28 29 30 31 32 32 32 33 34 35
20 20 20 21 22 23 23 25 26 26 26 26 25 23 22 24 26 27 25 23 23 22 22 21 22 21 21 22 28 29 30 30 30 31 32 32 33 34
21 22 23 23 26 27 25 24 24 25 26 26 27 28 28 28 26 23 22 21 19 19 21 21 20 21 21 21 21 27 27 28 29 30 31 32 32 34
22 22 27 23 26 28 25 24 22 20 21 23 22 21 21 21 25 22 22 21 21 20 20 21 21 22 19 20 21 21 21 26 28 29 30 31 32 30
22 21 21 26 28 28 27 22 21 22 23 17 17 18 19 20 21 22 23 24 22 21 22 23 23 22 22 20 20 21 21 22 22 24 28 30 32 32
21 21 22 28 27 26 23 24 24 24 17 17 18 19 21 22 22 23 23 24 24 23 24 24 22 22 21 19 18 20 22 23 24 25 26 29 32 33
22 25 27 26 23 21 22 23 22 17 18 18 20 20 21 22 23 22 22 22 21 22 24 23 23 23 22 20 19 20 22 23 25 26 26 29 29 30
25 24 22 20 20 20 19 18 17 17 19 20 20 21 22 22 21 21 20 20 20 19 22 23 23 23 22 22 23 22 23 23 25 27 28 29 30 30
22 18 15 15 16 16 16 17 17 18 19 20 20 20 20 20 20 20 20 20 20 19 19 21 22 23 24 24 23 23 23 24 26 27 27 27 29 29
16 14 15 16 16 16 16 16 17 20 19 20 19 19 19 19 19 20 21 20 18 18 19 20 21 21 22 24 27 25 26 26 26 27 28 28 28 29
15 16 16 16 16 17 17 18 18 19 20 20 19 19 19 19 20 19 19 19 19 19 19 20 23 23 20 18 23 28 26 27 27 26 28 28 29 29
17 16 16 17 17 17 18 18 19 19 19 19 20 21 21 20 19 19 19 19 19 20 22 22 22 24 23 23 24 25 28 28 28 28 28 29 31 32
16 17 17 17 18 18 18 19 18 18 21 21 19 20 21 21 19 19 20 23 23 21 20 21 23 29 29 28 24 22 25 28 30 30 30 29 28 28
16 17 17 18 19 19 19 18 18 18 18 18 19 21 21 21 21 20 21 21 21 21 22 24 26 26 27 25 23 23 25 27 29 31 32 32 30 27
17 18 19 19 19 19 19 19 18 18 18 20 21 21 22 22 23 23 22 22 22 23 25 24 25 26 25 26 26 26 25 25 27 28 30 33 34 34

GFSNE_sfc_dewp_054.txt.gz
Dewpoint
23 23 23 24 25 24 24 24 21 18 18 19 19 20 21 22 25 24 24 29 32 33 34 34 34 35 35 36 36 37 40 38 40 40 41 41 42 43
23 20 21 23 23 24 24 24 24 22 19 20 19 20 21 22 25 24 24 30 31 32 33 33 34 34 34 35 36 36 36 38 39 40 41 41 42 42
21 21 21 21 23 22 23 23 22 22 20 20 21 21 22 23 23 24 25 23 25 31 33 33 33 33 33 33 34 34 35 37 39 39 39 40 41 41
19 20 21 20 21 21 22 21 21 21 21 20 21 23 23 24 24 23 24 25 26 30 32 32 32 31 32 33 33 34 35 34 35 36 36 36 37 38
23 21 21 21 21 22 21 21 21 21 22 22 22 23 24 24 25 25 26 26 25 28 29 30 30 31 32 33 33 33 32 33 33 33 34 34 36 37
23 22 21 22 21 20 20 21 21 22 23 23 23 23 24 26 25 23 23 22 22 21 25 27 30 31 32 32 32 31 31 32 33 33 33 34 36 37
22 21 22 24 27 25 22 23 23 23 23 22 23 22 23 23 22 23 21 21 21 23 23 24 25 26 25 28 28 29 30 32 32 33 34 34 35 36
21 21 20 23 23 27 27 27 26 24 22 20 20 24 24 23 23 22 21 21 21 24 24 23 23 22 23 23 28 29 31 31 31 32 33 34 35 36
20 20 20 20 25 22 26 27 27 29 28 26 25 24 24 24 23 23 24 25 23 23 22 21 21 20 22 22 28 29 30 31 31 31 32 33 34 35
21 21 21 22 23 24 24 25 25 26 25 25 25 25 25 25 27 27 23 23 22 22 21 20 20 20 21 21 27 29 29 30 30 31 31 31 31 32
21 22 24 24 26 27 25 25 25 25 26 27 27 28 29 28 26 23 22 21 19 18 20 20 20 20 21 21 21 27 27 28 28 29 30 31 31 32
21 22 26 24 27 28 25 24 22 20 21 23 21 19 21 20 25 22 21 20 20 19 20 20 20 21 19 20 21 21 20 26 28 29 29 30 30 27
22 21 21 27 28 28 26 21 20 22 21 17 17 17 19 20 21 22 23 23 21 20 21 23 22 21 21 19 20 21 21 21 21 22 27 29 30 30
22 22 22 27 26 25 23 24 25 24 17 17 18 19 20 21 21 22 23 23 23 23 23 23 21 20 20 18 17 20 21 22 23 23 24 27 30 32
23 25 26 25 22 21 23 23 23 17 17 18 19 20 20 21 22 23 23 22 21 22 23 22 22 21 21 19 18 20 21 22 23 24 25 25 25 28
25 21 20 20 20 20 19 18 17 17 19 20 19 20 21 21 21 21 21 20 20 19 21 22 21 21 20 21 21 20 21 21 23 24 25 25 27 29
20 15 15 15 16 16 16 17 17 17 19 19 20 20 20 20 19 20 19 19 18 18 18 20 21 21 22 22 20 21 21 22 23 25 26 26 27 28
16 14 15 16 16 16 16 16 17 19 18 20 19 19 18 18 18 19 20 19 17 17 18 19 20 20 20 22 26 22 22 24 25 26 27 27 27 28
15 16 16 16 17 17 17 17 17 18 18 19 18 18 19 20 20 18 18 19 18 18 18 19 21 22 19 16 21 25 26 28 27 27 27 26 26 27
16 16 16 17 17 17 18 17 18 18 18 18 19 20 20 19 18 18 19 19 18 19 21 21 21 22 21 21 23 25 28 27 27 26 25 27 29 31
16 16 17 17 18 18 18 18 18 17 20 20 17 19 19 20 19 20 20 23 24 21 20 20 23 28 28 28 24 23 25 27 29 28 29 28 27 27
16 17 17 18 19 18 18 18 17 17 17 18 19 20 21 22 21 21 21 21 21 22 22 23 25 27 27 25 23 23 24 26 29 30 32 33 30 27
16 17 18 18 18 19 19 18 18 17 17 19 20 21 22 23 23 23 23 24 24 25 25 25 25 26 26 26 27 26 26 27 28 28 29 33 34 34

GFSNE_sfc_dewp_057.txt.gz
Dewpoint
24 24 25 25 26 25 24 23 21 16 18 19 19 20 21 22 25 25 24 29 32 33 34 34 34 35 35 36 36 36 37 37 39 39 40 40 42 42
24 22 23 24 24 25 25 24 23 21 19 21 19 19 21 21 25 25 25 30 30 32 33 33 33 34 34 35 35 36 35 36 38 40 41 41 41 42
24 23 24 23 24 23 24 23 23 23 21 20 20 21 21 22 23 24 26 24 25 31 33 33 33 33 33 33 34 34 35 36 38 39 40 41 41 41
25 22 21 21 22 22 22 22 22 21 21 19 20 22 22 23 24 24 24 24 25 29 33 33 32 32 33 33 33 34 34 36 36 36 36 37 37 38
26 27 25 22 22 23 22 22 22 21 21 21 21 23 23 24 24 25 25 25 25 28 30 30 31 32 33 33 33 33 33 33 33 33 34 35 35 36
27 25 23 23 22 21 20 21 21 21 22 22 22 22 23 24 24 24 22 23 22 22 25 28 30 31 31 32 32 32 32 32 33 33 33 33 34 34
22 21 22 24 26 26 24 23 23 23 23 23 23 22 20 24 23 23 23 23 22 23 23 24 24 25 25 28 28 29 30 32 33 33 33 34 35 36
20 20 20 22 25 27 28 28 26 24 21 20 17 22 24 24 24 23 23 22 21 24 23 23 23 22 22 23 28 30 31 31 32 32 32 33 34 35
19 20 20 20 25 23 26 28 28 29 28 26 25 24 23 24 24 23 24 24 24 23 23 21 21 20 21 21 28 29 30 31 31 31 31 31 33 34
20 21 21 22 24 25 25 25 25 25 26 25 25 25 25 26 28 27 25 23 22 22 22 19 20 19 20 21 27 29 30 30 31 31 31 30 31 31
20 21 23 23 26 27 25 26 26 25 26 27 27 28 29 28 26 23 21 21 19 19 20 19 19 20 20 20 21 28 28 29 29 29 30 30 31 31
22 22 25 24 27 28 26 23 21 20 20 22 20 19 20 20 25 22 21 19 20 19 20 18 20 21 18 21 21 22 20 26 28 29 30 30 30 26
22 22 22 27 28 27 26 20 21 22 21 17 17 18 19 20 21 22 22 21 20 20 21 23 21 21 21 19 20 21 21 20 20 22 26 28 29 29
22 22 23 27 26 24 22 24 25 25 17 17 18 19 20 20 21 22 22 23 24 23 23 24 21 19 18 17 16 19 20 21 22 22 23 26 29 30
24 24 25 23 22 21 23 24 23 18 17 18 19 20 20 21 21 21 22 22 22 22 24 22 22 21 21 18 17 18 20 21 22 22 23 23 24 24
23 18 19 19 20 20 19 18 17 17 19 20 19 20 20 20 20 20 19 20 19 18 21 21 20 20 19 20 20 19 20 20 22 23 23 24 25 26
20 15 15 15 16 16 16 17 17 18 19 19 19 19 19 19 19 19 19 18 17 17 18 19 20 21 21 21 19 20 20 21 22 22 23 24 25 26
16 14 15 16 16 16 16 17 17 19 18 18 18 18 18 18 18 19 21 19 17 17 18 19 19 20 19 21 25 20 21 22 23 24 26 26 26 26
15 15 16 16 17 17 17 17 16 17 17 17 17 17 17 18 20 18 18 18 18 18 19 20 20 20 19 17 20 24 25 26 27 27 27 27 26 26
16 15 16 16 17 17 17 17 17 17 16 16 18 19 19 19 19 18 19 19 19 20 22 23 23 23 21 20 22 24 27 27 27 26 25 26 27 29
15 16 16 17 17 18 18 17 16 16 19 19 17 17 19 21 20 20 20 24 24 23 21 22 25 29 28 27 24 23 25 28 30 29 28 27 26 26
15 16 17 17 18 17 17 16 16 16 16 17 18 19 21 22 21 21 22 23 23 23 24 26 27 28 27 26 24 24 26 27 29 31 32 33 30 26
15 16 17 17 17 17 17 16 16 17 17 18 18 21 22 23 24 23 24 24 26 26 26 25 25 26 27 26 27 26 26 27 28 29 30 33 33 33

GFSNE_sfc_dewp_060.txt.gz
Dewpoint
26 26 27 27 28 26 26 24 21 14 16 18 19 20 21 22 24 26 25 30 32 33 33 34 34 35 35 36 36 37 37 37 38 39 39 39 40 42
27 25 25 26 26 27 27 27 25 21 17 20 20 20 20 20 24 26 25 30 31 33 33 33 34 34 35 35 35 36 36 36 37 39 40 40 41 42
26 25 27 29 31 29 28 25 25 24 21 21 21 20 20 21 22 24 25 25 25 31 32 33 33 34 34 34 35 35 35 36 36 38 39 40 41 41
27 27 27 28 28 26 26 25 23 22 22 21 20 21 21 22 23 23 24 24 25 29 32 33 33 33 33 34 33 34 34 36 37 37 37 38 38 38
30 31 30 29 27 26 24 25 25 21 22 21 21 22 23 23 23 24 24 26 25 29 30 31 31 32 33 33 34 33 33 33 34 34 34 34 35 36
31 29 28 27 26 24 21 21 22 21 22 22 22 22 23 24 23 24 23 23 23 23 27 28 30 31 32 32 32 32 32 32 33 34 34 33 33 35
31 31 30 29 27 25 25 25 23 23 23 21 22 22 20 22 24 24 23 23 23 24 24 24 24 24 25 28 28 29 30 32 33 33 33 34 35 36
27 23 21 23 27 27 26 27 27 25 22 19 18 21 23 24 23 23 23 23 22 24 23 22 23 22 23 23 28 30 31 32 32 33 33 32 33 34
22 21 20 21 25 24 26 28 28 29 28 27 25 24 23 23 24 23 25 25 24 24 23 21 21 21 21 21 28 29 30 31 32 32 32 32 32 33
21 21 21 23 24 25 25 26 26 26 26 25 25 25 25 25 26 27 25 23 22 22 22 19 20 19 20 21 27 29 30 31 31 31 31 31 31 32
21 22 24 23 26 28 26 26 26 24 25 26 27 28 29 28 26 23 21 21 19 18 20 20 19 19 20 20 20 27 28 29 29 29 30 31 31 30
23 22 25 25 27 28 25 23 20 19 20 22 21 19 20 20 26 22 20 18 20 19 20 20 18 21 17 21 21 22 20 26 27 28 29 30 30 27
22 22 22 27 27 26 25 20 20 22 22 17 17 18 19 20 21 21 22 19 20 19 20 23 18 20 20 18 19 20 20 20 20 21 26 27 28 28
22 23 24 25 24 24 22 24 26 24 17 17 18 19 20 20 21 21 22 22 22 22 23 24 21 18 18 17 16 18 20 21 21 21 22 25 28 30
23 24 24 22 22 21 23 24 23 18 17 18 19 19 20 20 20 20 20 20 19 21 22 21 22 21 20 17 16 18 19 21 22 22 22 22 22 23
22 18 18 19 21 21 19 18 17 18 20 20 18 19 20 18 19 19 18 18 18 18 20 19 19 20 19 19 19 18 19 19 21 22 23 23 24 25
19 15 15 16 16 17 17 17 18 18 19 18 18 18 18 18 18 19 18 18 17 17 18 20 21 22 22 21 19 19 19 20 21 22 22 23 24 24
15 14 15 16 16 16 17 17 17 18 17 18 17 17 16 16 17 19 20 18 17 17 18 19 20 20 20 22 25 20 20 21 22 23 25 24 24 26
15 14 15 16 16 17 17 16 16 17 15 15 15 15 16 18 21 18 18 19 18 19 20 22 23 23 20 17 21 25 25 25 25 26 26 26 26 26
15 14 15 16 16 16 16 16 16 16 15 15 16 18 19 19 19 19 20 20 20 22 23 23 24 25 23 23 24 25 27 27 26 25 25 26 28 30
15 15 16 16 16 17 17 16 15 15 19 19 16 17 19 20 20 21 21 24 25 24 22 22 25 30 29 28 24 23 26 29 31 29 29 28 26 27
15 15 16 16 17 16 16 16 15 15 14 15 17 19 20 21 22 23 23 24 23 23 24 26 27 27 26 26 24 24 25 27 29 31 32 32 30 27
15 15 16 16 16 16 16 15 15 17 16 17 18 20 21 22 24 25 25 25 26 26 26 26 26 26 25 26 27 26 25 26 27 28 29 32 33 33

GFSNE_sfc_dewp_063.txt.gz
Dewpoint
33 31 31 28 28 27 27 25 26 21 19 20 21 22 23 23 24 23 24 28 32 33 34 35 35 35 36 36 37 37 38 38 38 39 40 39 42 42
28 26 27 27 28 30 31 31 32 30 26 22 21 22 24 21 23 25 24 30 31 32 33 33 34 34 34 35 36 36 37 37 39 39 40 41 42 42
26 26 28 31 31 30 31 31 30 28 26 24 22 22 21 22 22 24 25 25 25 30 33 33 33 34 34 35 35 36 36 37 38 39 40 40 41 42
29 29 30 31 32 32 32 31 29 28 24 20 21 21 21 23 23 24 24 24 24 28 32 32 33 33 34 34 34 34 35 35 37 37 37 38 38 40
31 31 32 33 33 33 31 29 28 25 26 25 22 23 23 24 24 25 25 25 24 28 30 30 31 32 33 33 33 34 33 34 34 34 35 35 36 37
33 33 32 32 32 31 30 29 28 26 26 24 23 25 24 25 26 25 23 23 22 23 27 28 30 30 31 32 32 32 32 33 33 34 34 34 34 35
33 33 32 32 33 32 29 29 27 25 25 27 26 26 25 24 23 24 22 22 24 25 24 23 23 24 25 28 28 29 30 32 33 34 34 34 35 36
29 28 29 30 31 30 28 27 27 26 29 28 28 25 24 24 23 22 24 25 22 24 23 23 24 23 23 23 28 30 31 32 32 33 33 34 34 35
26 23 23 25 27 24 26 26 27 28 29 28 26 24 23 22 26 27 27 26 23 24 24 22 22 21 22 21 27 29 30 31 32 32 32 32 33 34
27 26 23 23 24 25 25 28 28 27 26 24 24 24 25 27 27 27 25 24 23 22 22 21 21 20 21 21 27 29 30 31 31 31 31 31 31 31
23 23 24 23 26 27 27 29 24 22 23 25 27 28 28 27 26 25 25 23 21 19 21 20 21 22 22 22 21 26 27 28 29 29 30 30 31 31
23 22 25 25 26 27 24 22 20 19 22 25 21 20 21 21 25 22 23 23 22 20 21 22 21 21 21 20 22 21 20 25 27 28 29 30 30 27
22 22 23 26 26 25 24 20 20 24 22 18 18 19 20 20 21 22 23 24 22 22 22 24 24 23 22 21 20 22 22 22 21 22 26 27 28 28
22 23 23 24 22 23 22 25 25 24 18 18 19 20 21 23 24 24 23 24 24 24 25 26 23 22 22 21 19 21 24 24 24 24 24 26 28 29
22 23 22 21 22 21 23 24 22 18 18 20 21 22 23 23 24 24 25 25 25 24 25 24 24 24 23 21 20 21 22 24 25 26 27 27 26 26
21 18 18 20 21 21 19 18 18 18 20 21 20 21 22 23 23 23 23 23 22 23 27 26 25 24 22 23 23 21 23 23 26 27 27 27 28 28
19 14 15 16 17 17 17 18 18 18 20 19 20 20 20 21 21 23 23 22 21 22 23 25 26 26 25 24 22 23 24 25 26 27 27 26 27 27
14 14 15 16 17 16 17 17 18 19 19 19 19 19 20 20 21 24 26 23 21 22 23 25 25 25 25 26 27 24 25 26 27 28 28 26 26 28
14 16 16 17 17 18 18 19 19 19 19 19 19 19 20 20 23 23 23 23 23 24 25 26 27 27 23 21 25 28 29 29 29 28 29 28 27 28
15 16 17 17 18 18 19 19 19 19 19 19 19 20 21 21 22 23 24 24 24 26 26 27 27 28 27 26 27 27 29 30 29 29 29 30 31 31
15 16 16 17 18 19 19 18 18 18 20 21 19 19 21 22 23 24 24 26 26 26 25 25 28 30 31 31 27 25 28 29 31 31 31 30 29 29
15 16 17 18 18 19 18 18 18 18 19 19 19 21 22 23 23 24 24 25 25 26 26 28 29 30 30 28 26 26 27 29 29 30 31 32 31 28
15 16 17 18 18 18 18 18 18 19 20 21 21 22 23 23 24 25 25 26 29 28 28 27 28 29 28 28 27 26 26 26 28 28 30 32 33 34

GFSNE_sfc_dewp_069.txt.gz
Dewpoint
54 47 41 40 40 39 39 40 40 36 34 32 29 30 32 33 33 33 31 33 34 33 35 36 36 37 37 37 38 38 38 38 39 40 40 41 41 43
44 42 40 40 38 39 38 37 37 36 33 32 32 34 34 33 34 35 33 32 32 32 33 34 34 35 36 36 36 37 37 37 38 39 40 40 40 43
39 37 36 37 37 36 36 36 36 36 34 33 34 34 34 33 32 30 28 26 26 30 31 32 33 34 35 36 36 36 37 37 37 38 38 39 40 41
35 35 35 34 35 36 35 34 34 34 33 32 32 32 32 32 30 30 28 24 24 27 31 31 33 33 34 35 35 35 35 36 36 36 37 37 38 38
33 34 35 35 35 34 34 34 33 33 33 32 30 29 29 29 27 26 26 26 24 28 27 28 31 32 33 34 35 35 35 35 35 35 35 36 37 37
36 36 37 36 35 34 33 33 32 31 30 29 27 28 27 27 29 26 25 25 23 21 26 29 31 31 31 32 32 32 32 33 33 34 34 34 34 35
35 35 35 36 36 34 32 31 30 29 28 30 29 28 29 27 24 25 23 23 25 26 26 26 26 26 27 29 28 29 30 31 32 33 34 34 33 35
31 34 34 34 34 34 33 33 32 29 31 31 31 27 25 24 24 23 26 25 24 27 26 25 26 25 25 26 29 30 31 31 32 33 33 33 33 34
32 31 29 29 30 27 26 26 26 27 28 28 26 24 23 23 28 28 27 27 25 26 26 24 25 24 25 23 29 30 31 31 32 32 32 32 33 33
31 30 26 23 23 26 26 28 29 28 28 25 25 23 24 26 27 28 27 26 25 26 26 24 25 24 25 25 29 30 31 31 31 31 32 32 32 33
29 27 24 22 26 28 28 30 26 24 21 22 24 27 29 30 29 27 26 26 24 24 25 24 25 25 25 24 25 29 29 29 30 31 31 31 32 32
22 22 25 26 26 27 25 23 22 19 22 27 25 24 24 23 25 25 26 25 25 24 27 25 25 25 25 24 25 26 25 28 30 30 31 31 31 27
21 20 21 25 25 24 24 23 20 23 25 23 21 21 22 24 25 26 26 29 26 25 25 27 25 24 24 23 24 25 25 25 25 26 29 30 30 30
19 21 22 24 23 23 23 23 26 26 22 20 22 24 26 27 28 27 27 27 28 27 27 27 25 23 23 21 20 23 24 25 26 26 27 29 31 31
21 23 22 20 21 22 22 24 24 21 21 23 25 26 28 27 27 27 28 29 29 29 29 28 28 26 25 22 22 22 24 25 26 26 28 29 29 29
23 22 16 20 21 22 21 20 20 20 22 23 24 25 26 26 25 26 26 26 25 25 28 29 30 29 26 25 25 24 24 24 26 27 28 29 30 29
22 15 14 16 18 18 19 20 20 20 23 24 23 23 23 24 24 26 26 26 26 24 24 27 29 29 30 29 26 26 26 27 28 28 29 29 29 29
16 11 14 18 19 19 19 20 22 23 23 24 22 23 23 23 23 25 27 25 25 25 25 26 27 28 28 28 30 27 28 28 29 30 30 29 29 29
12 17 19 20 21 22 23 23 22 23 24 23 24 23 23 23 23 25 25 25 25 24 25 27 27 27 25 22 25 31 27 28 28 28 28 28 28 28
17 19 20 21 21 22 23 22 23 23 23 23 23 24 24 24 23 24 25 25 25 25 26 27 26 26 26 25 26 28 30 29 29 29 29 29 29 31
17 19 20 21 22 22 24 24 24 23 23 24 24 24 24 23 23 24 24 26 26 25 25 25 26 30 29 30 27 25 27 31 31 29 29 29 28 28
16 18 20 22 22 23 22 23 23 22 22 23 24 25 24 25 25 24 25 24 24 25 25 27 28 30 28 27 26 27 27 28 30 31 31 31 29 26
18 19 20 22 23 23 23 24 24 24 23 24 24 24 24 24 24 24 24 24 24 25 26 27 29 27 26 27 29 25 26 26 27 27 28 31 32 33

GFSNE_sfc_dewp_072.txt.gz
Dewpoint
55 51 44 42 42 42 42 43 42 37 35 35 35 37 37 37 37 35 35 35 36 39 38 36 36 36 37 37 38 39 39 39 39 40 40 41 41 41
45 43 42 41 40 41 41 41 42 40 36 35 34 35 36 36 36 36 35 37 36 34 34 33 34 34 35 36 37 37 38 38 38 39 40 40 40 41
40 40 39 38 39 39 39 39 38 37 36 33 34 35 35 35 34 32 32 29 28 32 31 32 33 34 35 35 36 37 37 37 38 38 39 38 39 39
37 37 37 37 37 37 37 37 35 35 35 32 32 32 32 33 32 31 29 27 26 28 31 32 32 31 33 34 35 35 36 36 36 36 37 37 37 37
35 35 36 36 35 35 35 34 34 33 33 32 31 32 32 31 30 29 28 27 26 28 27 28 30 32 33 34 34 34 34 35 35 34 34 35 36 37
36 36 36 35 35 34 34 33 32 31 31 29 29 29 28 27 27 26 26 25 23 23 28 29 31 31 31 31 32 32 32 32 33 33 33 34 34 34
35 35 36 36 36 35 34 32 31 29 29 30 29 29 29 26 24 24 22 24 25 26 26 26 26 27 27 30 29 30 31 32 32 33 34 33 33 34
32 33 33 34 35 36 34 33 32 30 31 29 28 27 25 24 23 25 25 24 22 26 25 25 26 25 26 26 30 31 31 32 32 33 33 34 34 33
32 32 32 32 31 30 28 26 27 28 28 28 26 25 23 22 24 22 23 21 23 26 26 24 25 24 26 25 30 31 31 32 33 33 33 33 33 33
32 32 31 27 27 29 28 27 28 28 28 26 25 23 22 25 27 24 24 25 26 26 26 23 24 24 25 26 30 30 31 32 31 31 32 33 32 32
28 28 25 24 26 28 28 29 26 22 21 20 21 25 28 29 29 25 21 20 22 23 25 24 24 24 24 24 25 29 29 30 31 32 32 32 32 32
22 24 26 26 27 27 24 22 21 18 22 25 24 24 24 22 24 24 23 14 24 23 24 22 22 23 22 24 24 24 25 28 29 30 31 31 31 28
20 20 21 25 24 24 24 22 20 23 25 23 20 21 22 24 25 26 26 26 26 25 25 28 25 25 24 23 23 23 23 23 24 25 29 30 31 30
19 21 23 24 22 22 22 24 26 26 23 20 21 22 23 23 27 28 27 28 28 27 28 28 25 25 23 22 21 22 23 24 24 25 26 28 31 31
22 23 22 19 21 22 22 24 24 21 20 21 22 21 21 21 24 27 29 29 29 29 29 29 28 27 26 24 23 23 24 24 26 25 23 26 26 27
24 23 17 18 20 21 21 20 20 20 21 20 19 21 22 25 24 26 26 26 26 26 29 29 29 28 26 27 27 25 25 25 27 28 28 28 28 28
22 16 13 15 18 19 19 19 20 20 21 21 23 24 23 24 24 25 24 25 25 24 25 27 29 29 29 28 26 27 27 27 28 28 29 29 30 30
18 12 15 18 20 20 20 21 22 22 22 24 23 23 23 23 23 24 25 24 24 24 25 26 26 26 26 27 30 27 27 28 28 28 28 28 28 28
15 17 18 20 20 21 20 21 23 23 24 24 24 24 23 23 23 23 22 23 23 24 25 26 27 26 23 20 24 29 26 26 27 28 28 28 28 28
17 17 18 20 20 19 22 23 23 23 23 23 23 22 22 21 19 19 19 22 23 24 25 25 26 25 24 23 25 27 30 28 28 28 28 29 30 32
17 18 19 19 18 22 22 23 23 23 23 23 22 23 23 22 21 20 22 24 25 24 23 23 24 28 28 28 26 25 26 30 31 30 30 29 28 28
17 17 18 18 17 22 23 23 23 23 22 22 22 22 22 22 22 22 22 22 22 23 23 25 26 26 28 28 25 25 26 28 29 30 31 31 30 26
17 18 17 16 13 21 22 23 23 23 23 22 21 22 22 22 22 23 23 23 24 24 24 24 24 28 26 26 27 27 24 24 26 26 28 31 31 32

GFSNE_sfc_dewp_075.txt.gz
Dewpoint
53 52 47 45 46 46 46 46 46 38 36 37 37 38 39 40 39 39 38 39 41 41 41 42 41 38 37 38 38 39 39 39 39 39 40 40 41 41
46 44 42 42 42 42 43 44 44 42 39 37 36 36 37 38 38 38 37 38 39 39 39 36 35 35 35 36 37 37 37 38 39 39 40 39 40 41
41 40 39 40 40 40 40 40 40 39 38 34 35 35 35 35 35 36 35 33 32 34 33 33 33 34 35 35 35 36 37 37 37 38 38 38 39 40
38 38 37 38 38 38 38 37 36 36 37 33 33 33 34 34 33 32 30 28 28 30 31 32 32 31 32 34 34 35 35 35 35 35 36 37 38 38
36 36 36 36 35 35 35 34 34 35 34 33 32 33 32 32 31 30 29 29 27 29 28 28 30 32 33 34 33 33 33 34 34 34 34 35 35 36
36 36 36 35 35 34 34 34 33 32 32 31 29 30 29 29 29 26 25 26 23 24 26 28 30 31 32 32 32 31 31 32 32 33 33 34 34 34
35 36 36 37 37 36 34 33 33 32 31 31 30 29 29 26 25 25 23 25 25 26 26 25 25 27 28 30 30 31 32 32 33 33 34 34 33 34
32 33 34 34 35 36 37 36 32 31 31 30 28 27 25 24 23 24 24 22 22 26 25 25 26 25 26 26 30 31 32 32 33 34 34 34 33 34
31 31 31 31 31 31 30 29 28 28 29 28 26 25 23 22 22 21 24 22 22 25 26 24 25 25 25 25 30 31 32 32 33 33 33 32 32 33
30 28 27 27 27 29 28 27 27 27 27 26 26 24 23 24 26 24 24 25 25 25 26 19 24 23 25 25 29 30 30 30 31 32 32 33 33 33
27 26 25 24 27 29 25 24 23 21 21 23 22 26 28 29 29 25 21 18 19 23 24 23 23 24 23 24 25 28 29 29 30 31 31 32 32 32
24 23 25 25 26 25 23 22 20 18 23 24 23 23 23 23 26 24 22 12 15 16 24 23 21 24 21 23 23 24 24 27 28 28 30 31 31 29
20 20 21 25 24 23 23 21 20 22 25 22 20 21 23 25 26 26 26 16 22 24 26 28 25 25 25 23 23 24 23 23 23 25 28 29 30 30
20 22 23 23 21 22 22 24 26 26 22 20 21 22 22 22 25 26 26 27 28 27 28 29 26 25 24 23 22 23 23 25 25 24 25 28 30 30
22 23 23 19 21 22 23 24 23 20 20 21 21 19 19 19 20 26 27 29 29 28 29 29 28 27 27 24 23 23 24 25 26 25 26 25 27 27
23 21 20 18 19 21 21 20 20 20 21 19 19 20 23 25 24 27 25 26 20 22 24 25 29 28 26 26 26 25 26 26 27 28 28 28 28 28
21 18 13 15 18 19 19 20 21 22 21 20 22 23 22 22 23 25 25 24 22 21 21 23 29 29 28 26 25 26 26 26 28 28 28 28 29 29
18 13 14 19 20 20 20 21 21 22 23 24 24 23 23 23 23 23 22 23 20 21 22 23 26 25 26 25 29 26 26 26 27 27 28 27 27 28
14 17 18 19 19 19 18 19 23 24 25 24 23 23 23 22 21 17 17 19 21 22 21 22 24 25 21 19 22 27 25 25 26 27 27 28 27 28
17 16 16 18 18 17 20 22 22 24 23 23 23 23 20 21 19 17 17 17 19 21 23 23 24 22 22 21 23 25 28 26 26 26 26 28 30 31
16 17 18 17 17 16 20 22 23 23 23 23 23 22 16 19 19 19 20 23 24 23 20 21 23 27 26 26 24 23 25 29 29 27 28 29 27 27
16 16 17 17 15 12 14 22 23 23 22 22 18 18 20 21 20 20 21 20 20 21 22 24 25 25 24 24 23 25 24 26 29 31 30 30 29 25
16 16 16 14 11 9 10 21 21 21 21 22 19 19 20 20 20 21 21 21 22 22 23 23 24 24 24 25 26 26 25 25 26 26 26 30 31 32

GFSNE_sfc_dewp_078.txt.gz
Dewpoint
50 49 48 46 46 46 47 47 47 41 38 38 37 39 40 41 43 42 40 42 43 43 44 44 43 44 42 39 39 39 39 39 39 39 40 40 41 42
45 44 43 42 42 43 44 44 44 43 40 38 37 37 38 39 40 39 39 40 41 42 42 42 40 37 36 36 37 37 37 38 39 39 40 40 41 41
41 40 40 40 40 40 41 40 40 40 37 34 36 36 36 37 37 38 38 37 35 39 38 36 34 34 35 35 35 35 36 37 37 38 38 39 41 41
38 38 38 38 38 38 37 36 36 36 37 34 34 34 34 35 35 34 33 30 30 30 32 32 33 32 32 33 35 35 36 35 35 36 36 37 37 38
37 37 37 36 36 36 35 35 34 34 34 34 31 34 33 32 31 31 30 29 27 30 28 28 30 31 32 34 35 34 34 34 34 35 35 35 36 37
35 35 36 35 35 34 34 34 33 32 32 32 31 31 31 30 30 26 25 25 23 24 26 27 29 31 32 33 33 32 32 32 33 34 34 35 35 35
36 36 36 37 37 35 33 33 34 33 32 31 30 30 27 26 24 24 23 24 23 25 25 25 25 26 27 30 30 31 32 34 34 34 35 35 35 35
32 33 33 33 34 37 37 35 33 32 28 28 26 26 25 23 23 23 23 21 20 25 25 25 26 25 25 26 30 32 32 33 33 34 34 34 34 34
30 25 29 30 30 29 29 29 29 29 29 27 24 24 23 22 21 18 22 18 21 25 25 23 25 24 25 25 29 31 32 32 32 33 32 34 34 34
24 24 25 25 26 28 27 27 26 26 25 27 26 25 23 23 24 22 23 24 24 24 25 18 23 23 24 25 29 29 29 30 31 31 32 32 33 33
26 25 25 25 29 29 24 24 22 21 23 28 26 27 28 29 28 25 21 18 18 23 24 23 23 23 24 24 24 27 28 29 29 30 31 31 31 32
24 22 26 25 25 25 23 22 20 19 22 25 23 21 23 25 29 24 22 12 13 14 23 26 24 24 19 23 23 24 24 28 29 29 30 30 30 28
20 20 21 25 23 23 24 21 21 21 25 21 20 21 23 24 26 26 24 14 21 24 26 28 21 25 25 21 23 24 24 24 23 25 29 29 30 30
20 22 22 24 21 22 22 24 25 25 21 20 22 22 22 22 22 23 25 27 28 27 28 29 25 22 22 22 21 22 22 25 25 25 25 28 30 31
21 23 24 19 20 21 23 24 24 20 20 20 20 18 19 18 22 27 28 28 28 27 26 18 26 25 26 24 23 23 24 26 26 26 19 24 25 26
23 21 19 18 20 21 21 20 20 20 20 19 18 20 24 24 24 26 24 25 24 21 21 20 19 24 25 25 25 24 25 24 25 27 27 28 28 29
21 17 13 15 18 19 20 21 22 22 20 21 24 24 23 24 24 24 24 23 22 22 21 22 23 25 26 25 24 24 24 25 26 26 26 27 27 28
18 13 14 18 19 19 20 21 21 22 23 23 24 24 23 23 22 17 14 15 19 19 19 21 17 21 22 24 28 25 25 24 25 25 26 27 27 28
13 15 17 18 18 19 18 16 21 23 25 24 23 23 23 22 21 16 14 14 17 17 18 19 14 20 21 18 21 25 22 23 24 25 26 26 27 27
17 15 15 17 18 16 16 16 22 23 24 23 23 23 23 18 16 14 14 14 16 16 18 17 12 20 21 20 22 23 27 25 25 24 25 26 27 30
16 16 17 17 16 15 15 15 23 23 23 23 23 22 16 13 17 14 17 22 23 21 19 18 19 25 26 26 23 22 23 27 28 26 26 27 27 27
16 16 16 16 15 11 8 10 21 22 21 22 22 20 15 16 18 18 19 18 19 19 19 21 24 25 25 23 21 22 23 25 28 30 30 30 28 25
16 16 15 14 12 7 3 6 12 18 21 21 20 20 16 17 18 19 20 20 20 19 20 20 22 23 24 23 24 23 25 26 25 25 25 28 30 30

GFSNE_sfc_dewp_081.txt.gz
Dewpoint
48 48 48 46 46 47 48 48 47 43 41 39 38 40 41 42 45 43 42 45 45 46 45 45 46 45 45 44 43 42 41 41 40 40 40 41 41 42
45 44 42 43 43 43 44 44 44 43 41 38 37 38 39 40 41 40 40 42 43 44 44 43 43 42 39 39 38 38 38 38 39 40 40 40 40 41
42 41 40 41 39 40 40 40 40 40 38 35 36 36 37 38 38 39 39 39 38 39 41 40 39 36 36 36 36 36 36 37 38 38 39 39 39 40
39 39 38 38 38 38 37 37 36 37 37 35 34 34 35 36 36 36 35 33 32 32 33 33 33 34 34 33 35 35 36 36 36 37 37 38 38 38
37 37 37 36 35 35 35 31 31 35 35 34 33 33 33 33 33 33 31 29 27 30 30 29 30 31 32 33 35 35 35 35 35 35 35 36 36 37
34 34 33 33 32 31 31 31 31 31 31 30 31 32 31 31 30 27 25 24 23 24 26 28 28 30 32 33 33 33 33 33 34 34 35 35 36 36
35 36 36 36 36 34 32 31 31 30 31 31 30 30 29 26 24 24 22 23 22 24 25 24 25 26 26 29 30 31 32 34 34 35 35 35 35 35
33 33 33 31 34 36 35 34 33 29 27 26 28 24 23 23 23 22 21 19 19 24 24 24 25 24 25 26 30 31 32 33 34 34 34 34 33 34
26 24 28 29 28 27 29 30 31 31 30 26 24 23 22 22 20 18 21 17 20 24 24 23 25 24 25 24 30 31 32 32 32 32 33 33 33 34
23 23 24 24 27 27 27 26 26 23 25 27 26 25 24 22 23 21 21 23 24 24 25 17 23 23 24 25 28 29 29 29 30 31 32 32 33 32
25 25 25 25 28 29 24 24 21 20 25 29 28 28 29 29 28 27 24 18 18 22 24 23 22 23 24 24 24 27 29 29 30 30 31 31 31 31
22 21 27 25 25 25 22 21 19 19 22 25 23 21 24 26 29 24 21 10 12 15 23 21 21 22 17 21 23 23 23 28 29 29 30 31 31 27
20 20 21 26 24 23 24 21 20 21 25 21 20 22 24 24 25 26 23 14 21 24 26 27 24 26 25 19 22 23 24 24 24 25 29 30 30 30
19 21 22 25 21 22 23 23 25 24 20 20 22 21 21 21 21 22 24 26 28 27 28 28 25 24 21 22 21 22 21 24 25 25 25 28 31 31
21 23 25 23 20 21 23 24 25 20 20 19 19 18 18 17 22 26 28 28 28 28 29 25 21 25 25 23 22 23 24 24 26 24 18 23 24 26
22 22 20 19 21 21 21 20 20 20 20 18 17 19 23 25 23 26 24 24 24 19 21 17 14 15 22 24 24 23 24 24 24 26 25 26 27 27
21 15 13 15 18 19 20 21 21 22 20 20 23 24 24 24 24 25 24 23 18 14 18 20 22 22 21 21 22 24 24 24 25 25 24 25 26 26
19 14 13 18 19 19 19 20 21 21 23 24 24 24 23 23 23 16 12 12 16 15 14 15 11 14 16 21 27 24 24 24 24 24 24 24 25 26
16 15 16 17 17 18 17 16 14 21 24 24 23 23 23 23 21 13 12 11 15 14 15 14 6 14 16 16 22 24 21 17 22 23 24 24 25 26
17 15 15 16 17 16 16 12 13 20 24 23 23 23 23 22 12 11 11 12 14 15 15 12 9 13 18 17 20 22 26 24 21 22 23 25 26 30
15 15 16 16 16 15 16 13 11 12 17 22 23 23 22 15 13 12 14 21 22 20 17 16 18 23 24 26 22 21 22 26 27 25 25 26 26 26
17 16 16 16 15 13 11 8 7 11 13 19 21 22 21 19 14 16 17 17 17 17 17 19 20 19 20 22 21 21 22 24 26 28 30 30 27 24
18 17 16 15 14 12 9 9 8 9 11 12 18 20 19 19 16 18 18 18 18 18 18 18 19 20 21 22 23 22 21 22 24 25 25 28 30 30

GFSNE_sfc_dewp_084.txt.gz
Dewpoint
49 48 48 46 46 46 48 49 48 44 42 39 38 40 41 43 45 43 43 48 47 46 45 46 45 46 45 46 44 43 43 44 43 43 41 41 41 42
46 45 43 42 42 43 43 45 45 45 42 38 37 38 40 41 43 41 41 42 43 43 44 44 43 43 41 41 41 40 39 39 39 39 40 40 41 41
43 42 41 41 41 40 39 39 38 38 39 35 36 36 37 38 39 39 39 39 39 39 40 41 41 40 38 37 36 36 36 36 37 38 39 39 39 40
40 40 39 39 38 37 38 37 34 36 38 35 34 35 35 36 36 36 35 34 33 33 34 34 34 34 34 34 34 35 35 36 36 36 38 38 39 39
38 37 37 37 36 36 35 34 33 33 32 31 32 34 33 33 33 33 32 30 28 29 30 30 30 31 31 32 33 34 35 36 36 36 35 36 37 38
34 34 33 32 31 30 30 30 30 30 30 29 29 31 31 31 30 28 26 25 24 23 26 28 29 30 31 31 33 33 33 34 34 35 35 36 36 36
36 36 36 36 37 35 31 29 29 29 29 28 28 28 28 26 25 23 22 22 22 24 24 24 25 25 25 29 29 30 32 33 34 35 35 35 35 35
32 32 31 32 34 36 34 34 31 27 24 22 19 23 23 22 23 22 21 19 18 24 24 24 25 24 25 25 29 31 32 33 34 34 34 34 35 35
26 26 28 30 28 27 30 32 31 32 30 25 23 22 22 22 20 17 21 16 19 24 24 22 24 23 24 24 30 31 31 32 32 32 33 33 33 34
23 23 24 25 28 25 26 26 24 22 26 26 25 24 24 23 22 20 21 23 24 24 24 17 23 23 24 24 28 29 31 28 30 31 31 32 32 32
25 24 25 25 27 28 23 24 21 20 26 30 28 28 29 29 27 27 27 19 18 21 24 23 22 22 23 23 23 27 30 30 29 30 31 31 31 32
21 21 27 25 25 25 22 20 18 19 23 24 22 21 25 28 29 24 21 10 12 14 22 23 20 21 17 21 22 23 23 27 29 29 30 31 31 28
20 20 21 26 23 23 26 19 20 22 25 21 20 23 24 24 25 25 22 13 16 23 25 27 17 21 23 18 22 23 23 24 24 25 29 30 31 31
19 21 22 25 20 22 24 23 25 24 20 20 21 20 20 20 21 22 23 23 28 27 28 28 25 23 22 21 20 22 21 23 24 25 25 28 30 31
21 23 24 23 21 21 23 24 25 20 20 19 19 17 18 17 21 25 27 28 27 26 27 28 26 25 22 22 22 22 24 23 25 21 17 20 25 26
22 22 20 20 22 22 21 20 20 20 20 18 17 18 21 25 25 26 24 23 23 14 20 15 10 11 13 20 22 22 23 23 22 26 25 24 25 26
22 15 12 15 17 18 19 20 21 21 19 18 20 24 23 25 24 25 24 21 16 10 14 16 20 20 18 18 19 21 21 22 25 25 24 23 24 25
20 16 13 16 18 18 19 19 20 21 21 20 21 24 23 23 23 23 20 9 10 9 10 10 8 12 15 19 25 20 21 23 24 24 23 23 23 24
20 16 15 17 17 17 17 15 14 18 15 17 23 23 23 23 23 20 8 8 10 10 12 8 3 9 11 14 19 24 22 14 17 22 23 23 23 24
17 16 15 16 16 16 15 12 12 13 14 16 16 23 23 22 22 15 9 6 12 10 11 8 5 11 13 13 15 20 24 22 20 21 22 24 25 28
15 15 16 16 15 15 15 13 10 7 9 9 13 22 22 22 20 17 13 20 21 18 15 15 16 22 19 21 19 19 22 25 26 23 23 24 24 25
19 17 17 16 15 13 11 10 6 6 7 9 12 12 13 21 20 19 16 15 15 15 15 17 18 11 12 19 18 19 20 23 25 27 27 27 25 23
20 19 18 17 16 14 13 11 10 8 7 7 8 12 12 14 19 18 17 16 16 16 16 17 18 16 18 20 21 21 22 21 22 22 24 28 29 31

GFSNE_sfc_dewp_087.txt.gz
Dewpoint
52 51 50 47 48 48 50 51 50 47 46 41 43 42 43 44 46 46 47 49 48 47 46 46 46 45 45 45 43 43 43 43 43 43 43 43 42 42
48 47 46 45 44 45 46 46 47 48 44 41 40 40 41 42 43 41 42 42 44 44 44 44 43 43 42 41 41 40 40 40 40 39 39 40 40 41
45 44 42 42 42 41 42 42 42 43 43 37 38 37 38 39 39 39 39 39 38 40 41 41 40 40 39 37 36 36 36 37 37 38 38 39 39 40
42 41 40 39 39 39 40 38 38 39 41 38 36 36 36 36 36 36 35 33 34 32 34 33 33 34 34 34 34 34 35 35 36 37 38 38 38 38
39 39 38 38 37 37 37 37 36 36 37 37 34 34 34 34 34 34 31 29 27 28 30 30 31 30 30 32 33 33 35 36 36 37 36 36 37 37
36 36 35 35 35 35 34 34 34 34 35 35 34 33 32 32 30 28 27 26 25 23 25 28 31 30 30 30 31 33 34 34 34 34 35 36 36 36
37 37 36 36 36 35 33 33 33 32 32 33 31 30 29 27 26 25 23 23 23 25 24 25 25 25 25 28 29 30 31 33 34 35 35 36 35 35
33 33 33 33 36 36 35 34 31 30 31 31 30 27 25 24 24 23 23 23 19 25 25 23 25 24 25 26 28 31 32 33 34 34 35 33 34 34
32 32 31 30 29 30 33 32 32 33 29 26 23 24 23 23 25 27 25 26 23 25 25 23 24 23 25 23 28 31 32 32 31 31 32 32 33 34
27 28 29 28 27 27 27 27 25 28 27 24 24 24 25 25 25 26 26 27 27 25 26 25 24 23 24 24 28 30 31 31 30 31 31 32 32 33
25 27 27 26 30 26 25 26 22 21 28 30 29 29 29 29 27 27 28 27 23 22 25 24 25 24 24 23 23 27 29 30 30 30 31 31 32 32
25 26 28 25 25 28 21 18 19 19 26 24 21 23 26 29 28 25 27 27 26 25 25 26 26 25 26 23 24 25 23 26 28 29 30 31 31 29
20 20 23 26 24 25 25 18 20 23 26 21 21 24 24 24 24 25 25 28 27 26 25 27 28 26 26 24 24 25 25 24 23 25 28 29 30 30
18 20 22 24 22 24 25 25 29 25 20 20 22 23 24 25 25 25 25 27 27 28 29 30 27 27 25 23 22 24 25 26 26 26 26 29 30 30
20 23 26 25 23 21 24 25 27 21 20 21 23 24 25 26 26 26 27 29 27 28 30 28 28 27 26 24 23 23 24 26 26 29 30 29 28 28
25 24 21 21 21 21 23 23 20 20 21 23 23 24 25 26 25 25 25 25 25 25 26 26 25 24 24 24 24 22 24 24 27 27 29 29 29 28
22 16 12 13 16 18 19 20 21 22 24 23 23 23 23 23 23 25 25 24 22 22 22 23 24 24 24 23 22 23 24 25 27 27 27 27 28 26
22 17 14 13 15 16 18 19 21 23 23 24 24 24 24 24 24 25 25 22 20 20 21 21 21 22 23 24 26 24 24 25 27 28 27 25 25 26
22 20 18 16 17 19 20 21 22 23 24 25 24 24 24 24 24 23 23 21 20 20 21 21 20 20 19 19 21 26 26 26 26 25 25 25 26 27
22 21 20 19 18 18 19 21 22 22 22 23 24 24 24 24 23 22 22 20 19 19 20 22 21 20 19 20 20 22 23 25 25 25 25 26 27 28
19 18 17 18 18 19 19 20 20 20 21 22 23 23 23 24 22 21 20 20 21 21 20 20 22 22 23 23 20 19 23 24 26 27 27 25 24 24
22 21 20 19 20 20 20 19 19 18 21 20 20 21 23 23 22 20 18 19 18 19 19 20 21 22 21 20 19 20 21 23 24 26 26 27 26 23
23 23 23 23 22 21 20 19 17 18 17 17 18 18 18 19 21 21 19 18 18 17 17 18 20 21 20 20 21 21 22 23 24 25 27 27 27 28

GFSNE_sfc_dewp_090.txt.gz
Dewpoint
55 54 52 50 51 51 51 53 52 48 47 45 46 44 44 45 45 46 46 48 48 48 48 47 46 46 46 44 43 43 43 43 43 43 43 43 43 44
51 50 49 48 48 48 49 49 50 50 47 44 42 42 42 42 42 41 41 42 44 45 44 44 44 43 43 42 41 40 40 39 39 40 40 39 40 40
49 48 46 45 44 44 45 46 46 47 46 40 39 39 40 41 40 41 40 39 38 40 40 40 39 38 38 37 36 36 36 37 38 38 38 38 40 41
45 44 42 42 42 43 44 43 44 44 44 40 38 38 39 38 38 38 36 34 35 33 34 34 34 35 34 34 34 35 35 35 36 37 37 37 37 38
43 43 42 41 40 41 41 41 40 39 41 41 37 36 35 36 36 35 33 32 26 27 28 29 30 31 30 32 33 34 34 35 36 36 36 36 36 37
40 39 39 39 39 39 38 38 38 38 39 38 37 36 36 34 33 31 30 28 26 23 25 26 29 30 31 31 31 32 34 34 34 34 34 35 36 36
38 37 37 37 37 36 37 37 37 36 36 38 36 34 34 31 30 27 25 24 24 25 24 23 24 25 26 28 29 31 30 32 34 35 36 36 36 36
37 37 37 38 37 37 36 33 32 33 34 34 34 30 26 25 25 24 24 24 21 26 24 22 25 24 26 26 27 30 32 33 34 34 35 34 33 34
36 36 33 32 34 34 34 33 33 32 29 27 24 22 23 23 28 29 25 26 22 25 25 24 24 23 26 23 27 31 32 33 33 31 32 32 33 33
31 30 28 26 26 26 25 28 28 27 25 22 24 23 24 25 25 29 27 26 27 25 26 27 25 24 25 25 26 31 32 33 31 31 31 31 32 33
26 28 28 28 28 27 27 27 23 27 31 30 30 30 29 29 28 28 29 28 25 23 25 25 27 26 26 25 23 27 29 30 31 31 31 32 32 32
24 25 26 25 30 24 19 20 20 20 24 23 23 25 27 29 28 27 28 30 29 29 27 27 27 27 29 27 26 26 25 26 28 30 30 31 31 29
23 24 26 27 25 28 20 16 16 21 26 21 20 22 23 25 25 26 26 31 29 28 27 27 27 26 26 26 26 27 27 26 25 26 28 29 29 30
17 18 20 25 24 25 25 25 29 26 21 20 22 23 24 26 27 27 26 28 27 29 29 31 27 27 26 24 24 27 28 28 28 28 28 29 31 30
18 21 25 27 23 23 25 26 29 23 20 22 23 26 28 28 29 29 29 29 31 29 31 31 28 28 27 24 24 25 26 28 29 31 32 31 29 29
24 26 22 21 23 18 23 26 24 21 21 24 25 26 27 27 26 26 26 26 25 26 30 29 28 27 26 26 26 24 26 26 29 30 31 29 30 30
23 19 17 16 19 18 19 20 20 20 23 23 26 26 25 25 25 26 26 25 24 24 25 27 28 27 27 26 25 25 26 29 31 29 28 28 30 28
21 16 13 12 13 13 15 17 19 22 23 26 26 26 26 26 26 26 26 24 23 23 24 26 25 25 25 27 28 26 26 28 28 29 28 27 27 27
23 20 19 18 16 16 18 20 23 23 30 28 28 27 26 26 25 24 24 23 22 23 24 25 24 23 22 21 24 28 27 27 28 27 27 28 27 28
25 24 24 22 19 20 21 23 24 24 26 26 26 26 26 26 25 24 23 22 22 22 22 23 24 23 22 22 22 24 25 27 25 26 27 28 28 28
25 24 23 22 21 22 23 23 24 25 25 25 25 26 25 25 24 24 23 21 21 21 21 22 25 24 25 25 20 21 26 26 26 27 27 26 25 25
24 23 22 22 23 24 24 24 24 23 24 24 24 24 24 24 23 22 21 21 20 20 21 23 24 23 22 20 20 22 24 24 25 25 26 26 26 23
27 26 26 27 27 27 26 25 24 23 23 23 23 23 23 22 21 21 21 20 20 20 19 19 20 22 21 22 21 20 21 23 24 25 27 27 28 29

GFSNE_sfc_dewp_093.txt.gz
Dewpoint
58 57 55 53 53 53 53 54 53 49 49 47 45 44 44 45 45 45 45 48 49 48 48 48 47 47 45 44 44 43 43 42 42 42 43 43 42 42
52 51 50 49 50 50 50 50 50 51 48 46 42 42 43 42 43 42 42 42 44 45 45 44 44 44 43 42 41 40 39 39 39 40 40 40 39 40
50 49 48 48 47 47 47 48 48 49 47 40 41 40 41 42 41 42 41 40 39 39 40 39 39 38 38 37 37 37 37 38 38 38 38 38 39 40
47 46 45 44 44 45 46 46 46 46 46 41 39 39 40 39 39 39 36 35 35 35 37 37 37 36 35 35 35 35 34 34 36 37 37 36 37 37
45 44 43 44 43 44 44 43 43 42 44 41 38 37 37 37 37 37 34 33 27 27 27 28 29 30 31 32 32 33 34 35 35 36 36 36 36 37
43 42 42 42 42 42 41 41 40 40 41 40 39 38 38 36 36 34 32 30 29 23 26 27 27 30 31 31 31 31 32 34 34 33 34 35 35 36
40 39 39 39 39 38 39 39 39 39 39 40 37 36 36 34 32 29 27 26 28 27 26 26 26 28 29 29 30 29 30 31 32 34 35 36 36 36
39 38 38 38 37 37 36 35 35 37 37 38 37 35 30 28 27 26 27 28 26 28 27 25 27 26 27 28 30 29 31 33 34 34 35 35 34 34
36 37 35 35 36 34 35 34 33 33 32 31 29 25 25 25 31 29 26 28 25 27 26 26 26 25 27 23 27 29 31 33 33 33 31 32 33 33
36 34 32 30 29 29 27 30 29 27 27 22 27 25 27 27 29 30 27 26 27 27 27 27 27 26 27 28 28 29 33 32 33 31 32 32 32 33
29 28 28 26 29 28 29 29 27 29 30 32 32 31 30 30 30 29 30 29 28 24 27 26 28 28 28 27 26 26 29 30 31 32 32 32 32 33
27 28 26 29 27 25 26 24 23 24 25 27 27 26 30 29 29 28 30 27 28 28 28 27 27 27 25 28 26 27 27 27 28 29 31 30 31 31
24 25 26 28 29 26 20 19 20 24 25 22 21 23 24 26 27 27 27 29 28 27 27 27 27 26 26 26 27 28 28 27 27 28 30 30 30 29
21 23 26 27 26 27 23 26 26 25 23 21 23 25 26 28 28 28 27 28 30 29 29 30 27 27 26 24 23 27 27 28 28 28 29 30 31 32
20 21 23 26 24 25 26 27 30 25 21 24 26 28 29 30 27 27 30 29 27 28 29 25 25 28 27 25 24 24 26 26 27 27 29 29 28 28
23 27 26 26 26 22 23 26 27 25 24 26 27 28 29 28 28 29 28 28 27 26 30 26 23 22 25 25 25 24 25 25 26 27 28 28 28 28
25 24 21 20 21 20 21 24 24 21 24 25 27 27 27 27 27 28 28 27 25 23 25 27 29 28 26 25 23 23 24 25 26 29 28 26 27 27
23 18 16 16 17 18 17 18 20 22 25 28 27 27 26 26 27 27 27 26 24 23 23 26 27 25 24 25 27 24 24 24 27 28 27 26 25 27
22 20 20 20 19 20 22 24 24 25 26 27 27 27 26 25 25 24 25 24 24 24 24 25 25 23 19 19 24 29 24 22 23 25 26 26 25 27
25 25 24 23 23 22 23 25 26 26 26 26 27 26 25 24 23 23 24 24 23 22 22 24 24 23 21 20 22 21 28 24 23 23 23 25 26 28
27 27 26 26 25 25 25 26 26 26 26 25 25 25 25 24 23 23 23 23 23 21 20 21 22 26 27 25 21 19 22 26 26 23 22 24 24 22
26 26 26 26 25 25 26 26 25 25 24 25 24 24 25 24 23 22 23 21 21 20 20 19 20 22 23 21 18 18 20 23 25 26 27 26 24 20
28 26 26 26 26 26 26 26 25 25 24 24 24 24 24 23 23 23 22 22 21 19 18 19 19 20 21 21 21 21 21 20 21 22 23 27 28 30

GFSNE_sfc_dewp_096.txt.gz
Dewpoint
60 59 56 54 54 54 54 54 53 49 49 46 43 44 45 44 45 45 45 48 49 49 49 49 48 47 47 46 45 44 43 42 42 42 42 42 41 41
53 52 51 51 51 51 51 51 51 51 48 44 42 43 43 43 44 42 43 43 45 46 46 45 45 44 43 43 41 40 40 40 40 40 40 40 39 42
51 50 49 49 48 47 46 47 48 48 46 40 41 41 41 42 42 41 41 40 38 41 41 40 39 40 39 39 39 39 39 39 38 38 38 38 39 38
48 47 46 46 45 45 46 45 46 46 45 40 39 39 40 40 39 39 35 35 34 38 39 38 38 37 36 36 36 35 34 35 36 37 36 36 36 36
46 45 44 44 44 44 42 40 41 41 42 39 36 38 37 37 37 36 34 30 26 30 29 29 30 30 31 32 32 32 34 35 35 35 36 35 35 36
43 43 43 43 42 40 39 38 39 38 38 39 38 37 36 35 35 34 30 29 27 24 26 26 25 28 28 29 29 30 31 33 33 32 33 34 35 35
40 39 39 40 41 40 38 36 37 37 37 36 37 35 33 33 31 28 26 25 25 25 24 24 25 26 27 29 30 29 29 30 31 33 35 35 36 36
36 36 38 39 38 39 39 38 37 36 34 37 31 32 31 27 26 24 24 23 22 27 25 24 25 24 26 28 31 30 30 32 34 34 35 35 35 34
36 36 36 37 35 34 35 35 35 35 34 32 31 26 24 25 27 25 24 23 22 26 25 24 25 23 26 25 28 29 30 32 34 34 33 32 33 33
36 34 33 31 32 28 29 28 27 29 29 25 25 26 27 26 27 27 25 25 25 25 25 21 26 25 27 27 29 28 31 33 33 33 31 32 32 33
29 29 28 27 30 30 29 28 27 28 32 33 32 32 31 31 28 28 25 23 23 24 26 24 25 25 27 27 27 26 27 30 31 31 32 32 32 33
27 27 31 28 30 30 28 25 26 27 27 27 25 30 30 29 30 26 25 18 20 21 25 21 23 23 19 26 27 27 27 29 29 30 31 31 31 30
25 25 26 32 28 25 22 22 22 25 26 23 22 23 26 25 26 26 27 20 16 16 27 20 17 24 26 22 24 26 26 27 27 28 31 31 31 31
23 25 27 29 29 28 22 24 26 27 23 21 22 23 24 23 24 26 26 25 24 22 27 29 21 18 25 24 21 24 23 25 25 27 27 29 31 30
21 24 29 29 27 27 26 28 28 24 21 23 24 23 22 22 22 23 25 26 21 24 26 27 25 15 24 24 23 24 24 24 26 23 28 27 28 28
22 24 25 27 26 25 26 25 28 25 23 23 24 24 24 20 21 21 22 27 26 25 28 29 20 17 13 21 24 23 25 22 19 23 25 29 29 29
25 26 23 21 23 22 20 25 26 25 23 23 23 23 25 24 22 22 27 26 24 23 25 28 29 28 27 25 23 23 23 19 22 24 29 27 28 28
24 21 21 21 21 20 20 21 23 24 23 24 23 24 23 22 20 23 27 26 24 24 24 26 26 25 25 24 27 23 21 18 20 24 24 22 24 26
23 21 20 19 18 20 21 22 21 23 19 22 24 21 19 18 23 21 25 25 25 24 24 25 25 23 20 18 22 26 23 15 19 22 22 22 23 24
25 24 23 23 22 21 22 22 22 21 22 23 20 20 21 19 14 14 17 17 17 20 23 24 23 23 21 19 20 19 24 17 17 22 22 23 25 27
27 25 25 25 24 24 23 23 23 22 20 18 22 22 21 18 16 18 18 24 22 16 16 15 18 24 24 23 21 20 20 23 24 25 21 23 23 22
27 27 27 27 26 25 25 24 23 25 22 23 23 23 22 23 21 20 20 18 20 16 14 13 15 14 12 16 17 16 18 20 23 24 25 25 23 21
28 27 27 27 27 26 25 24 24 24 23 23 24 24 23 23 23 23 22 21 20 17 16 14 16 16 17 18 20 20 19 19 22 21 22 26 26 27

GFSNE_sfc_dewp_099.txt.gz
Dewpoint
60 59 58 57 57 56 56 55 53 49 49 44 43 44 45 45 45 45 46 49 49 50 50 49 49 48 48 48 47 46 45 43 42 42 42 42 41 41
55 56 54 52 53 53 52 53 52 52 49 44 42 43 44 43 44 43 44 45 46 47 46 45 45 45 44 44 43 42 42 42 41 41 40 40 40 42
52 52 51 50 50 48 49 49 49 50 47 40 41 42 42 42 42 42 42 40 40 42 42 41 40 41 41 41 41 41 40 40 39 38 38 38 39 38
50 49 48 48 47 47 47 46 45 47 45 40 39 39 40 41 40 39 35 36 36 39 40 40 40 39 38 38 37 36 35 36 38 37 36 36 36 36
48 47 46 46 45 45 45 44 44 43 44 40 38 39 38 38 37 37 35 29 28 32 32 32 32 32 32 33 33 33 35 35 35 35 36 35 35 36
45 45 45 45 44 43 42 41 39 39 40 39 38 37 37 37 37 33 30 30 26 24 27 26 26 28 29 29 30 30 32 33 33 32 33 34 35 35
40 40 41 42 43 42 40 38 37 37 36 38 37 36 35 33 32 29 29 26 25 25 24 24 25 25 26 30 30 30 30 30 31 33 34 35 35 36
36 37 38 40 40 41 40 39 38 36 34 32 34 29 31 30 27 25 25 23 22 26 24 22 25 24 26 27 32 30 30 31 33 34 34 35 34 34
36 36 36 37 37 36 38 37 38 38 37 35 33 31 26 26 26 25 24 23 22 26 24 24 25 23 26 26 29 29 30 32 33 34 34 32 32 33
37 36 36 33 32 31 27 27 29 29 26 26 27 26 26 27 27 26 24 24 25 25 25 21 26 25 27 27 30 28 30 33 33 34 32 32 32 33
34 33 31 30 33 33 28 27 27 29 32 33 31 32 31 31 29 27 25 25 23 24 26 24 24 24 26 27 26 27 28 30 31 31 31 31 32 33
28 28 32 28 32 32 28 27 26 27 28 27 29 31 30 31 31 27 26 19 21 21 25 21 22 22 18 25 26 26 27 30 31 31 31 31 31 30
27 26 28 31 31 31 30 26 26 27 28 23 24 27 25 26 26 27 27 21 15 16 26 20 13 18 17 20 23 25 26 26 26 26 30 31 31 31
25 25 26 33 29 27 23 26 27 29 24 22 23 23 25 24 25 26 26 26 24 21 25 23 13 12 10 14 19 23 22 23 25 25 25 29 29 29
24 27 29 30 29 29 25 26 29 25 23 23 24 24 24 24 23 24 25 23 19 23 26 20 26 22 12 14 15 22 24 22 24 19 20 21 25 29
25 26 28 30 28 27 28 26 27 24 23 23 25 25 24 21 21 21 16 17 23 25 26 29 27 20 13 14 17 20 23 21 17 19 21 21 26 30
24 26 25 25 25 23 22 25 27 27 25 24 25 25 26 25 24 18 17 21 23 23 23 24 29 27 26 25 23 23 24 23 19 21 19 23 23 26
25 24 24 23 22 24 21 20 25 27 25 25 25 26 25 23 21 19 20 21 22 19 22 24 26 25 25 24 27 23 24 22 19 21 21 18 24 24
26 24 23 23 21 22 22 23 23 25 25 25 23 24 22 20 25 19 17 17 17 17 19 23 23 21 16 16 21 25 24 22 24 23 22 21 22 23
29 26 23 22 21 21 22 23 23 24 24 23 23 23 22 19 17 16 16 15 15 13 13 15 19 16 16 14 12 17 25 15 15 14 19 22 23 26
29 26 26 24 23 23 23 23 23 23 23 23 23 23 22 22 19 21 19 24 21 14 16 15 18 24 16 20 20 20 21 24 22 15 17 22 21 21
27 27 27 26 26 25 25 24 23 23 25 23 23 23 23 23 23 21 21 21 22 20 19 12 13 11 11 18 19 17 17 21 23 23 24 24 22 19
27 27 27 27 27 27 27 25 24 24 24 25 23 23 23 23 24 24 23 23 22 20 19 14 14 14 18 16 19 18 18 18 20 20 22 25 26 26

GFSNE_sfc_dewp_102.txt.gz
Dewpoint
59 59 58 57 57 57 57 56 55 49 49 44 43 44 45 45 46 46 47 49 50 51 50 50 49 49 49 50 49 48 47 45 44 44 43 42 41 41
55 56 56 55 55 54 55 54 53 53 49 44 43 43 44 44 45 44 45 45 48 48 47 46 46 46 46 45 45 44 44 44 43 42 41 40 41 41
52 53 54 52 52 51 50 50 51 51 49 40 42 42 43 43 42 42 42 40 41 43 43 43 42 42 43 43 43 43 42 42 41 39 39 39 40 39
52 50 51 49 49 48 48 48 48 48 46 41 40 40 41 42 41 39 37 36 38 40 41 41 41 41 41 40 39 38 37 38 39 38 37 37 36 36
50 48 48 47 47 46 46 46 46 45 44 41 39 39 38 39 39 37 33 30 31 35 35 36 35 35 36 36 35 36 36 36 35 36 36 36 35 36
46 46 46 46 45 45 44 43 42 42 42 40 38 37 37 38 38 34 32 30 25 25 28 27 27 30 30 31 32 31 32 34 34 33 33 34 34 35
41 41 42 43 45 44 42 41 40 40 39 39 38 37 35 35 35 33 30 26 25 25 24 24 25 25 26 31 30 31 30 31 31 33 34 35 35 36
37 38 39 42 42 43 42 41 40 36 35 37 36 35 34 33 31 28 26 24 23 27 23 22 25 24 26 26 32 32 31 32 33 34 34 34 35 35
36 37 37 38 38 39 39 39 40 41 39 36 35 34 31 29 27 26 25 24 23 26 23 24 25 24 26 26 31 29 30 32 33 33 34 34 32 33
38 37 37 34 34 32 29 29 29 26 29 32 34 31 28 28 28 27 25 25 25 26 25 23 26 25 27 27 31 28 29 33 33 34 33 32 32 33
36 35 34 33 35 33 28 28 29 30 32 33 32 32 32 32 30 27 26 26 24 24 26 24 24 24 25 26 26 29 30 29 31 32 31 32 32 33
29 30 36 31 35 33 27 26 28 29 29 30 30 31 31 31 31 26 27 24 23 22 25 22 22 22 18 24 26 26 26 31 32 32 32 32 32 30
28 27 28 33 33 33 31 27 25 29 29 27 26 26 26 27 27 28 27 24 18 18 27 21 11 17 14 19 23 25 24 24 25 26 29 30 31 31
27 27 27 33 31 31 29 29 30 30 25 23 25 25 25 26 26 27 27 26 26 23 25 19 11 12 7 11 18 23 21 22 25 25 25 28 29 29
25 27 28 32 32 29 27 26 28 26 23 23 24 25 26 26 25 26 26 25 22 25 26 17 17 13 10 8 12 17 20 21 22 18 18 20 22 25
27 28 30 30 30 28 27 26 27 24 24 24 25 26 25 24 24 23 20 19 18 19 26 23 26 24 18 20 13 14 17 17 17 18 19 19 21 25
24 24 25 26 26 25 25 26 28 26 25 24 25 26 26 26 25 21 20 17 16 16 21 24 29 26 24 21 20 21 18 24 24 19 18 15 21 25
25 25 25 25 25 25 23 22 25 28 27 25 25 26 26 25 24 19 18 18 16 18 14 16 22 25 26 23 27 21 24 23 24 19 20 21 21 23
26 24 25 26 25 24 25 24 23 26 26 26 24 26 26 25 26 21 20 19 17 15 14 14 15 21 19 16 20 26 23 20 19 19 21 20 20 21
29 28 26 25 24 24 24 24 24 24 26 25 25 24 25 23 22 21 21 21 18 14 13 11 13 14 15 14 12 16 26 14 16 13 17 21 22 26
30 29 28 26 24 24 24 24 24 24 24 24 24 24 24 24 24 23 23 25 23 16 17 16 20 25 20 20 20 19 21 25 23 16 15 16 19 21
29 29 28 27 27 26 26 25 24 24 24 24 23 24 24 24 24 24 23 22 24 23 21 19 16 17 18 20 20 19 17 21 22 23 24 23 19 19
28 28 28 28 28 27 27 26 25 24 24 24 24 24 24 23 24 24 23 23 23 22 22 19 18 17 18 19 21 20 19 18 20 20 21 24 25 26

GFSNE_sfc_dewp_105.txt.gz
Dewpoint
59 59 59 59 59 59 57 55 54 50 48 45 43 44 45 46 47 47 48 50 51 51 51 51 50 49 50 51 50 50 49 48 47 46 46 44 43 43
52 53 54 55 56 56 56 56 54 54 51 45 44 44 45 45 46 45 46 48 49 48 48 47 47 46 46 46 46 46 46 46 45 44 43 42 43 42
52 52 52 53 53 53 52 52 52 52 50 41 42 43 43 43 43 43 42 42 43 45 45 44 44 43 44 45 45 44 44 44 43 41 41 41 42 40
51 51 51 50 50 50 50 50 50 49 47 41 40 41 41 43 42 41 39 36 39 42 43 43 43 43 42 42 41 40 40 40 41 40 40 39 39 37
47 49 49 48 48 47 47 47 46 46 45 42 39 40 40 42 40 37 34 31 33 40 40 40 39 38 38 38 38 37 38 38 37 37 37 37 36 36
43 43 44 45 46 46 45 45 44 44 43 41 39 38 38 39 39 35 32 29 27 25 29 29 29 33 33 33 33 33 33 34 34 34 34 34 34 35
39 39 40 42 44 45 44 43 42 42 42 40 38 37 35 37 36 34 32 27 26 25 24 25 26 25 27 31 31 31 30 31 32 32 35 35 36 36
36 37 38 40 41 43 43 42 42 40 38 38 37 36 35 35 33 32 28 27 25 26 22 23 25 24 26 26 32 32 31 32 32 34 34 35 35 35
38 37 38 38 38 39 39 39 40 41 40 37 36 36 34 33 32 30 27 26 24 26 23 22 25 24 27 26 33 31 30 31 32 33 35 35 34 33
38 38 37 36 35 34 31 31 30 29 31 36 36 36 34 32 32 29 27 25 26 26 25 24 26 24 27 27 33 29 29 32 34 35 35 34 32 32
36 36 36 35 36 35 31 31 29 31 32 33 33 34 33 33 30 27 27 26 24 24 26 25 25 25 25 27 26 30 31 30 32 34 33 31 32 32
32 31 36 34 36 35 28 28 29 29 29 31 29 31 32 32 31 26 28 25 24 23 26 24 24 24 21 25 26 25 26 32 33 32 32 32 32 30
29 29 29 36 36 35 32 26 26 29 30 28 27 27 27 28 28 27 27 26 23 21 27 22 15 20 17 21 23 25 24 24 25 26 28 29 30 31
28 28 28 32 34 34 34 31 30 31 25 26 25 25 26 26 27 27 27 27 27 25 28 22 16 15 12 13 18 22 21 22 24 24 24 28 27 29
26 27 30 31 34 30 30 27 29 27 23 24 25 26 26 27 26 26 26 26 25 28 26 20 19 13 12 8 12 17 18 20 22 18 17 20 22 24
30 29 29 30 30 31 30 26 27 26 24 24 25 26 26 24 24 24 22 21 21 23 26 21 22 20 16 19 12 13 16 14 18 17 19 19 20 23
27 23 24 27 29 27 26 26 27 26 26 25 25 25 25 25 25 23 21 21 21 21 21 25 27 25 23 16 11 17 17 15 21 21 17 14 20 23
29 23 23 25 26 27 26 24 25 28 27 25 25 26 26 25 25 22 21 22 21 22 22 22 23 23 24 22 26 17 19 22 24 24 20 21 21 22
30 25 24 25 25 26 26 26 25 26 27 27 25 25 25 25 26 23 23 22 22 21 21 18 15 17 15 15 20 27 21 22 23 22 22 22 19 21
29 28 25 25 25 26 26 26 25 25 26 27 26 25 26 25 25 24 23 22 22 20 16 13 16 18 17 15 14 16 26 19 20 18 19 22 22 24
29 29 28 27 27 26 25 25 24 24 24 24 25 25 25 24 24 25 24 26 24 21 19 19 20 25 18 19 19 20 21 26 24 17 17 15 18 21
28 29 29 29 28 27 26 25 24 24 25 24 24 25 25 24 24 24 24 24 25 25 22 16 15 18 18 20 20 19 19 21 23 24 25 23 14 14
31 28 29 28 29 28 28 27 26 25 24 24 23 23 23 23 24 24 24 24 24 24 24 19 17 18 19 21 22 21 19 18 20 20 21 24 25 26

GFSNE_sfc_dewp_108.txt.gz
Dewpoint
58 58 58 58 58 58 58 57 55 52 49 47 45 45 46 47 48 48 49 51 51 51 51 51 51 50 50 51 53 53 52 52 51 49 48 46 45 46
51 52 52 52 53 54 55 56 56 55 52 46 45 44 46 46 47 46 47 49 50 49 48 48 48 47 47 47 48 48 48 48 48 47 46 45 46 45
50 52 52 52 51 51 52 52 52 53 52 42 43 44 44 44 45 44 44 44 45 47 46 45 46 45 45 46 46 46 46 46 46 44 44 45 44 42
47 49 50 50 48 49 50 49 50 50 49 44 41 42 42 43 43 41 38 38 42 44 44 45 45 45 44 44 43 43 42 43 43 43 44 43 41 39
44 44 46 46 45 46 47 47 47 47 46 43 39 41 41 42 41 38 36 36 37 44 43 43 42 41 40 40 40 41 41 40 39 39 40 39 38 37
40 40 40 41 42 45 45 45 45 45 44 42 40 39 39 41 39 35 32 30 28 28 32 31 35 36 37 36 37 37 37 36 35 36 36 36 36 36
38 38 38 40 43 44 44 43 43 43 43 41 39 38 37 38 38 36 33 28 26 27 26 26 27 26 30 32 33 32 32 33 34 34 35 37 37 36
36 36 36 39 40 42 43 43 43 41 39 39 38 37 36 37 35 34 30 28 28 27 24 24 25 24 26 29 32 32 31 32 32 35 36 35 35 36
35 35 37 38 38 38 38 38 39 40 42 39 38 37 36 35 34 32 30 30 28 26 22 22 25 24 27 27 33 33 31 31 32 35 35 35 35 35
34 35 36 37 36 37 33 33 31 31 32 37 37 38 37 36 35 34 30 26 26 26 25 25 26 24 27 27 34 31 30 31 34 35 35 36 34 33
35 35 36 35 36 38 32 32 30 30 33 35 35 35 35 36 32 30 28 28 25 24 26 26 26 26 26 27 27 29 29 31 33 35 35 34 33 33
31 31 33 37 37 37 29 29 29 29 31 31 30 31 32 34 32 27 28 26 24 23 26 26 25 25 24 26 26 26 27 33 33 34 33 32 31 31
30 29 29 32 37 37 34 26 26 29 31 28 28 27 27 28 28 27 27 24 22 23 27 24 21 23 21 24 24 26 26 25 25 26 29 29 31 31
29 28 28 32 33 35 34 34 31 30 28 27 26 26 26 26 27 28 28 28 27 26 29 25 20 21 19 19 21 24 23 23 25 24 24 28 28 28
29 28 30 30 32 34 31 32 29 29 25 26 26 23 26 27 25 25 26 27 26 28 26 23 22 17 18 16 18 20 21 23 23 18 18 21 22 24
34 31 30 29 31 31 32 28 26 28 25 24 23 24 26 23 24 25 22 22 21 22 27 23 22 22 19 18 16 17 20 19 18 18 19 19 21 23
32 25 23 25 27 28 27 27 26 27 26 24 24 24 25 25 25 21 22 22 20 21 22 26 27 25 22 20 18 20 20 18 20 19 18 15 21 23
32 25 23 23 25 27 27 25 26 27 27 26 26 26 25 24 24 23 21 18 19 21 22 23 26 25 25 23 25 17 18 16 20 25 24 21 22 23
34 28 25 24 24 26 26 26 24 26 26 26 24 24 25 25 26 23 22 21 20 22 23 22 21 21 16 15 20 27 19 18 22 23 22 22 20 22
32 31 28 25 25 24 25 25 25 25 26 27 26 25 25 25 24 23 24 23 23 23 22 21 20 19 19 17 13 15 27 17 19 18 20 23 23 25
31 30 28 26 25 24 25 25 25 24 25 25 26 25 25 25 24 25 24 26 25 23 22 22 21 25 22 21 19 18 20 27 24 19 18 18 19 21
32 30 29 28 27 26 24 25 25 25 25 24 23 25 25 25 25 24 24 24 26 25 23 23 19 22 20 20 19 16 17 21 25 27 27 23 15 12
33 32 30 30 30 28 27 26 26 26 25 26 25 23 23 24 25 25 24 24 24 25 25 23 20 21 22 22 21 20 19 19 21 21 22 25 26 27

GFSNE_sfc_dewp_111.txt.gz
Dewpoint
58 58 57 57 57 58 58 58 56 52 52 52 49 47 48 49 50 50 51 53 53 52 52 52 51 51 51 52 54 54 55 54 52 51 50 49 49 49
53 53 52 53 53 54 55 55 55 53 50 51 49 47 47 47 48 48 49 50 51 50 50 49 49 49 48 49 50 52 53 53 52 51 49 48 49 47
52 52 50 51 52 53 53 53 54 54 51 46 45 45 45 46 46 46 46 46 48 48 47 47 47 47 48 47 48 49 49 50 49 48 48 48 47 44
48 50 48 49 50 50 50 51 51 51 50 48 43 43 44 45 45 43 40 41 44 45 46 46 46 47 46 46 46 45 45 45 45 45 46 46 45 42
45 45 45 46 47 48 48 49 49 48 47 45 41 42 42 43 42 41 38 38 40 45 45 45 45 44 44 42 42 43 43 42 42 44 44 43 41 40
42 42 42 43 43 45 46 46 46 46 45 44 41 40 41 42 41 37 35 34 31 31 36 37 39 41 41 41 41 40 39 38 38 39 39 38 38 38
40 39 40 41 42 43 45 45 44 44 44 43 41 40 39 39 39 38 35 32 30 30 30 30 30 31 34 36 35 34 35 36 36 36 36 37 37 38
39 39 39 39 40 42 43 43 43 43 42 41 40 39 38 39 37 36 32 30 30 29 27 27 27 26 28 32 32 32 32 33 34 35 37 37 38 38
38 39 38 38 38 38 38 38 37 39 41 42 40 39 38 38 37 35 33 33 33 28 25 25 26 25 27 26 33 33 33 33 34 36 36 36 36 37
37 37 38 38 37 38 36 35 33 32 34 33 39 39 39 38 37 37 35 29 27 26 26 29 25 24 27 29 35 34 32 33 34 35 36 37 36 35
35 35 36 36 37 38 34 34 31 31 33 38 37 37 37 38 35 32 31 31 27 26 26 26 26 26 27 27 30 33 31 31 34 35 36 37 35 34
33 33 33 34 38 38 33 30 29 30 31 31 30 31 33 35 33 31 33 33 30 28 27 29 27 28 28 28 29 30 32 33 34 36 36 35 34 33
33 31 31 33 34 37 37 29 28 29 32 29 28 28 28 28 28 28 30 35 32 32 28 30 29 27 29 27 27 28 28 29 29 31 33 32 32 33
34 31 29 32 33 35 35 35 34 30 29 28 28 28 27 28 29 29 29 30 30 33 32 32 30 30 29 27 26 26 27 27 27 27 27 28 30 31
33 31 31 32 31 32 34 34 33 30 27 27 27 28 28 30 29 29 30 30 30 31 29 28 29 26 28 29 26 26 26 27 27 29 28 29 28 28
37 34 32 30 30 30 33 30 27 29 28 27 26 27 28 28 28 28 28 28 28 28 28 27 27 27 26 26 26 25 26 27 26 27 27 28 28 27
33 29 27 26 26 28 29 29 27 26 29 27 27 26 26 27 27 27 27 27 27 26 26 27 27 27 27 26 25 24 25 25 26 27 26 26 28 27
33 29 28 27 25 25 26 27 27 28 28 29 27 27 27 27 27 26 27 26 26 25 26 27 28 27 27 26 27 25 24 25 26 27 26 24 25 26
35 31 30 29 27 26 27 28 28 28 30 30 29 28 28 27 28 26 26 26 26 26 26 26 27 25 23 21 22 28 26 25 25 25 25 24 25 25
34 33 31 30 28 28 28 28 28 28 28 29 29 29 28 28 27 27 26 26 26 26 25 25 25 25 24 23 23 23 27 26 25 24 24 25 25 26
34 33 32 31 30 29 29 28 28 28 28 28 28 28 28 28 27 27 27 27 26 26 25 25 26 27 27 25 22 21 23 27 27 26 25 24 22 21
33 33 32 31 30 30 30 29 28 28 29 28 27 28 28 28 27 27 27 26 27 27 26 28 27 28 24 24 23 23 22 23 26 28 27 25 25 23
33 34 33 32 32 32 31 30 29 29 28 29 28 27 27 27 27 27 27 26 27 27 28 26 24 25 25 24 24 24 23 23 23 23 24 28 28 28

GFSNE_sfc_dewp_114.txt.gz
Dewpoint
59 59 58 58 57 58 58 58 55 50 50 51 53 50 51 51 51 52 53 54 54 53 53 52 52 52 52 53 54 55 58 59 58 56 53 52 52 51
56 55 53 53 53 54 54 54 53 53 49 52 53 51 50 49 50 51 51 51 52 52 51 50 50 49 49 51 52 53 54 54 53 53 52 52 51 49
53 52 51 50 51 52 53 53 52 53 52 51 51 49 47 49 48 48 49 49 50 50 49 48 47 48 48 49 50 51 53 53 53 52 52 51 49 47
49 49 48 48 49 51 51 50 51 52 51 50 47 46 47 47 47 46 44 43 45 47 47 46 47 47 47 48 47 47 48 50 50 50 50 49 47 44
47 47 47 47 48 49 48 48 49 48 49 48 46 43 44 45 44 42 40 41 42 45 46 46 46 46 45 45 44 45 45 44 46 48 48 46 44 42
44 44 44 44 45 46 46 46 46 47 47 47 44 43 43 43 43 40 37 37 36 37 41 42 43 43 43 42 43 43 42 41 42 43 43 42 41 39
42 41 42 42 41 43 44 44 44 43 45 45 43 42 41 40 40 39 37 35 34 34 34 34 35 36 38 40 39 38 38 37 37 39 40 38 38 39
40 40 40 40 41 41 43 43 43 43 43 43 43 41 40 40 39 37 34 33 33 32 32 31 30 30 32 35 34 33 34 35 36 36 37 37 38 39
40 40 39 39 40 39 39 38 38 38 39 40 41 41 40 40 39 37 35 34 35 31 31 30 28 28 30 27 33 33 33 33 34 36 38 38 38 38
38 39 38 38 38 39 39 38 38 35 34 36 35 37 39 39 39 39 37 32 28 27 29 32 28 27 28 28 35 35 34 34 35 36 37 37 37 37
36 37 37 37 37 38 38 37 35 34 33 37 37 38 38 39 38 35 33 32 29 28 27 29 29 29 28 27 31 35 34 34 34 35 36 37 37 36
35 34 34 35 37 38 38 35 34 32 32 32 31 32 33 36 34 32 35 34 32 30 29 31 29 29 29 29 32 33 32 32 33 35 36 37 37 34
36 35 33 34 35 37 39 35 33 30 31 30 29 29 29 29 29 30 31 35 34 35 31 33 34 31 33 29 29 32 32 32 33 35 36 36 36 34
36 35 33 32 34 35 36 37 35 32 30 28 28 28 29 30 30 31 30 32 32 34 33 34 33 35 34 30 28 29 30 31 31 32 32 32 33 34
38 37 34 32 32 33 35 35 36 33 30 28 28 30 31 32 32 32 32 33 33 33 33 32 34 33 34 34 30 29 29 30 30 33 33 33 32 31
39 37 35 33 31 30 30 33 31 30 29 29 29 29 30 31 30 31 32 32 33 31 31 32 32 32 31 30 31 29 30 30 31 30 31 31 31 30
35 33 31 30 29 28 28 29 29 29 29 29 30 30 29 29 29 31 31 31 31 30 29 29 29 30 30 32 28 28 28 29 29 30 29 29 30 29
34 32 31 30 29 29 27 26 27 28 29 30 30 31 30 30 30 30 31 30 29 28 29 30 29 28 28 28 29 28 27 28 29 29 28 28 28 28
36 33 32 31 30 29 30 30 30 29 34 34 33 33 32 31 30 29 29 29 28 29 29 29 29 28 27 24 25 29 29 27 27 27 27 26 26 27
36 35 34 33 32 31 31 33 33 32 32 32 33 33 33 32 30 30 29 28 28 29 29 29 28 28 27 28 27 27 29 29 27 27 27 26 25 27
35 35 34 33 32 32 34 35 34 34 34 33 33 33 33 32 31 30 30 28 28 28 27 28 30 29 32 27 23 22 25 28 28 29 28 26 24 23
34 35 34 34 33 33 33 34 34 33 33 33 33 33 33 32 30 30 28 29 28 29 29 31 31 30 27 25 24 25 25 25 28 28 28 27 28 24
34 34 35 35 34 34 33 33 32 33 33 33 33 33 32 31 29 28 28 28 29 29 29 28 29 29 27 26 26 27 26 25 23 23 26 29 29 28

GFSNE_sfc_dewp_117.txt.gz
Dewpoint
61 60 59 58 58 58 58 58 56 50 49 51 54 52 53 53 52 52 53 54 54 54 54 53 53 52 53 53 54 54 56 60 61 60 59 56 56 55
59 58 57 55 55 55 56 54 54 53 49 51 54 52 51 50 51 51 51 51 53 53 52 52 51 51 50 51 52 54 54 56 59 59 56 55 55 52
54 53 52 52 52 53 54 52 51 52 50 51 52 51 50 50 48 49 50 50 51 50 50 49 48 49 49 49 50 52 53 54 54 55 55 54 53 51
51 51 50 48 50 51 51 51 50 51 50 47 49 48 48 48 48 47 45 44 46 48 48 47 48 48 48 48 47 48 51 52 53 53 54 52 50 48
49 49 49 48 48 50 50 49 48 47 48 48 47 45 45 45 44 43 41 42 43 46 47 47 48 47 46 46 46 46 46 47 49 50 51 49 48 45
46 46 46 46 46 47 47 47 45 46 45 45 47 45 43 44 44 41 39 39 38 39 44 45 45 45 44 44 45 44 44 44 46 46 46 46 44 42
44 43 44 42 42 43 43 45 44 43 43 44 43 43 42 41 41 40 38 36 36 37 36 36 37 38 41 42 41 41 40 40 42 43 42 41 39 40
42 41 41 40 41 41 43 42 43 42 41 41 42 41 41 40 40 38 35 34 35 35 35 34 32 33 33 37 37 37 37 37 38 38 38 38 38 40
42 42 41 39 40 40 41 40 40 38 38 39 38 40 41 40 39 36 35 35 35 33 33 32 29 29 31 31 35 35 34 35 36 37 38 38 38 39
40 40 40 39 39 39 39 39 39 38 36 37 37 36 36 38 39 38 37 34 29 29 31 32 30 29 29 29 34 34 34 34 35 36 38 38 38 39
37 38 38 38 39 38 39 37 37 36 35 37 36 36 38 40 40 36 33 33 31 29 28 30 29 29 29 29 33 36 35 35 35 37 38 38 38 38
37 36 37 37 38 39 38 37 35 34 32 33 31 32 32 33 34 32 34 33 33 31 30 31 30 31 30 30 32 34 34 34 34 35 36 37 38 36
37 36 35 36 36 36 38 37 35 32 31 32 30 30 30 30 30 30 31 34 33 33 31 33 33 32 34 28 30 33 33 33 33 34 37 37 38 36
37 37 35 33 34 35 36 36 37 35 32 29 29 29 30 31 32 32 32 33 33 33 33 34 33 30 31 26 26 30 31 32 32 33 34 37 38 37
39 38 37 33 33 33 35 36 36 36 32 30 30 30 31 33 32 32 33 33 32 33 33 31 33 32 32 31 26 27 29 31 31 31 31 31 32 33
40 39 38 35 34 32 31 32 33 33 31 31 31 31 31 30 29 30 30 32 31 30 29 27 28 30 27 29 29 28 29 26 29 30 31 30 31 31
38 35 34 32 31 30 30 30 31 31 30 30 31 31 30 30 29 30 28 29 28 29 29 27 29 29 29 26 24 28 29 28 29 29 29 29 30 30
35 33 33 32 30 30 29 29 29 29 30 31 31 31 29 29 28 29 27 26 25 27 27 29 27 26 26 28 30 27 27 27 28 29 28 27 28 30
35 33 33 32 31 30 30 31 31 31 31 32 31 30 29 30 29 27 27 25 25 27 28 28 27 25 23 22 27 30 26 27 29 28 28 28 27 29
36 35 34 34 33 32 31 32 33 33 31 31 30 29 29 28 28 27 26 24 24 26 27 28 26 26 25 26 26 26 30 29 28 27 28 28 28 28
36 35 35 34 33 33 32 33 33 34 33 31 30 29 29 29 28 27 27 28 27 24 25 26 28 30 29 27 24 24 26 30 30 28 28 26 26 26
34 35 34 34 34 33 33 33 33 33 33 32 31 31 30 30 28 27 27 27 27 27 26 26 27 29 27 25 24 24 25 27 29 29 29 28 26 23
33 33 34 34 34 34 33 33 32 33 33 32 32 32 30 29 29 28 27 27 26 26 26 26 28 29 27 26 25 25 25 25 26 25 27 29 29 29

GFSNE_sfc_dewp_120.txt.gz
Dewpoint
61 60 59 58 57 57 56 56 53 48 47 49 50 50 51 51 51 52 52 54 54 54 55 54 53 53 53 53 53 54 55 56 59 61 61 60 58 56
59 58 57 54 54 54 54 53 52 51 47 49 49 49 49 49 50 50 51 51 53 53 52 52 51 50 50 51 52 53 54 55 58 61 60 58 57 58
56 55 53 52 51 51 51 51 51 51 49 48 49 49 48 48 48 49 49 49 50 51 51 50 49 49 50 50 51 52 53 54 55 58 58 58 57 53
52 51 50 49 49 49 50 48 49 50 49 47 47 48 47 46 47 47 45 44 46 49 49 48 49 49 49 48 48 49 52 53 53 55 54 54 53 51
50 49 48 47 48 47 47 46 46 47 47 47 46 45 45 44 43 43 42 42 43 45 48 47 49 49 47 46 47 47 47 49 50 53 52 51 51 50
46 46 45 45 45 46 46 45 44 43 44 44 44 44 43 44 44 42 40 39 39 40 44 47 48 46 45 45 45 45 45 47 48 50 49 49 47 47
44 44 43 42 43 43 43 42 42 41 42 42 40 39 39 39 41 41 38 37 37 38 39 39 40 41 42 44 42 42 42 43 44 45 45 43 43 43
41 40 40 40 41 42 44 43 42 40 38 41 39 39 39 40 39 39 36 34 35 37 37 37 36 36 36 39 40 39 38 39 40 42 42 40 41 43
41 41 40 40 40 40 42 41 40 40 40 37 38 37 39 40 39 36 35 35 35 35 35 35 31 32 33 33 38 36 36 37 38 38 38 38 39 42
40 40 39 39 40 39 38 38 38 38 36 37 35 35 35 35 36 38 37 35 31 31 34 33 30 30 31 30 36 37 36 35 36 37 38 39 40 41
38 38 38 38 40 39 38 35 36 36 37 38 36 36 36 38 39 37 34 33 32 31 29 31 30 30 30 30 33 36 36 35 35 36 39 39 39 39
36 37 39 37 41 39 37 37 35 31 31 31 30 30 32 32 34 32 34 33 33 32 31 31 30 31 30 30 32 33 33 36 36 37 38 38 38 37
36 35 35 38 37 38 39 36 35 33 32 30 29 28 28 28 29 29 31 33 33 33 32 33 32 32 33 29 27 30 31 31 32 33 36 37 38 37
36 36 35 37 36 36 36 38 38 36 32 29 28 27 27 26 27 28 30 32 33 33 34 33 32 32 30 20 26 26 26 30 32 32 32 37 38 39
37 37 37 36 35 35 36 36 36 33 32 28 27 25 26 25 25 26 28 31 31 31 32 32 33 32 32 26 23 23 25 27 28 27 27 32 34 35
40 39 39 37 35 34 32 32 32 32 31 27 27 26 26 23 23 23 20 24 29 29 29 28 29 30 25 26 23 21 24 24 24 25 26 28 30 30
38 36 35 34 32 31 30 30 31 31 29 27 25 25 27 26 25 21 19 27 27 19 26 25 28 28 27 21 23 26 26 24 23 25 26 25 27 30
35 33 33 32 31 29 29 29 30 30 28 27 26 25 25 23 21 21 25 16 19 17 18 27 23 22 25 26 29 25 25 24 23 28 27 25 27 29
34 33 32 32 30 29 31 31 31 30 30 24 24 24 22 21 30 28 27 26 18 17 17 20 19 19 20 19 27 31 26 26 27 27 27 28 26 28
35 34 33 33 32 32 31 31 32 32 31 30 23 22 22 20 23 27 27 20 19 15 16 18 19 21 21 24 25 26 31 24 27 26 26 28 28 29
36 35 35 34 33 33 33 32 32 32 33 31 26 24 24 23 24 21 22 28 26 17 18 23 26 29 23 24 22 23 25 31 29 27 28 26 25 26
35 35 35 35 34 34 33 33 33 33 33 32 31 30 29 29 27 23 24 23 23 22 24 20 20 21 21 24 23 21 24 27 29 31 30 28 25 21
33 33 33 34 34 34 34 33 33 33 33 33 32 32 31 30 29 29 26 26 24 22 24 20 24 22 26 26 23 20 23 25 26 25 27 30 31 31